ECMWFFLT1_250_spd_000.txt.gz
Wind_Speed
33 33 35 37 37 36 36 37 38 38 38 38 40 42 43 44 44 44 44 44 45 46 47 48 49 50 50 50 50 51 52 52 53 53 54 54 54 55 55 54 54 53 52 52 52 53 53 53 53 55 56 57 58 60 61 64 67 70 73 74 74 75 75
35 35 35 37 38 38 38 39 40 40 39 40 42 44 45 45 45 45 45 45 46 47 49 50 51 52 52 52 52 53 54 55 56 56 57 58 58 57 57 57 56 55 53 52 52 53 54 54 54 54 56 57 59 60 61 63 65 68 71 73 75 75 76
38 37 37 38 39 39 39 40 41 41 41 42 43 45 46 46 46 45 46 46 47 49 50 51 53 54 54 55 55 55 55 56 57 59 59 60 60 60 60 59 58 57 56 54 53 52 52 54 55 56 56 57 59 61 62 63 64 66 69 72 74 76 77
41 40 39 40 40 41 41 42 42 43 43 44 45 47 47 47 46 46 47 48 49 50 52 53 54 55 56 56 57 57 58 58 59 60 61 61 62 63 63 62 61 60 58 56 54 52 51 51 53 55 57 58 59 60 62 63 63 64 66 69 73 76 79
43 42 42 42 43 43 43 44 44 45 45 46 47 48 48 48 48 47 48 49 50 51 53 54 55 56 57 58 58 58 59 60 61 61 62 63 64 65 65 65 64 63 61 58 56 53 51 50 50 52 55 58 60 61 61 62 63 63 64 67 70 75 79
45 45 44 45 45 45 45 45 46 46 47 48 49 50 49 49 48 49 50 51 51 53 54 55 56 57 58 59 59 59 60 60 61 62 63 64 66 66 66 66 66 64 63 60 57 54 51 49 48 49 51 54 58 61 61 62 63 63 63 65 69 73 78
48 47 47 47 47 47 47 47 47 48 48 49 50 50 50 50 50 51 52 52 53 54 55 56 56 58 59 59 60 60 61 61 61 62 64 65 67 68 67 67 66 65 63 61 58 55 51 48 46 46 48 50 55 59 61 61 62 62 62 64 68 71 75
49 49 49 49 49 50 50 50 50 50 50 50 51 51 51 51 52 52 53 53 54 55 56 57 58 59 60 60 61 61 61 62 62 63 65 66 67 68 68 68 67 65 63 61 59 56 52 49 45 44 45 48 52 56 60 61 61 62 62 63 67 70 72
51 50 50 51 51 52 52 52 52 52 51 52 52 52 53 53 53 54 54 54 55 56 57 58 60 61 62 62 62 62 63 63 64 64 65 67 68 68 69 69 68 66 65 62 60 56 52 49 45 42 43 46 50 54 57 59 60 62 62 63 66 69 70
52 52 52 53 53 53 53 54 54 53 53 54 54 54 54 55 55 55 55 55 56 57 58 60 61 62 63 63 63 63 64 65 65 66 66 67 68 69 69 69 69 68 66 64 61 57 52 48 45 41 41 44 48 51 54 57 59 61 62 62 64 67 68
54 54 55 55 55 55 55 55 55 54 55 55 55 55 56 56 57 57 56 55 56 58 60 61 63 64 65 65 65 65 66 67 67 67 68 69 69 70 70 70 70 70 68 65 61 57 52 47 43 40 38 41 45 47 50 54 57 59 61 62 64 66 67
55 55 56 57 57 56 56 56 56 56 56 57 56 57 57 58 58 58 57 56 58 60 61 62 64 66 66 67 67 67 68 68 69 69 70 70 70 71 72 72 72 71 69 65 61 57 52 46 42 38 36 38 41 43 47 51 55 58 61 62 64 66 67
56 57 57 58 58 57 57 57 57 57 58 58 57 58 58 59 59 59 57 58 60 61 62 63 65 67 68 69 69 69 70 70 70 71 71 72 72 72 73 73 73 71 69 65 61 56 52 47 42 37 34 35 38 39 43 48 53 57 61 63 64 66 67
58 59 59 59 59 59 59 59 59 59 59 58 58 58 58 59 59 58 58 59 61 62 64 65 67 69 70 71 71 71 72 72 72 72 73 74 74 74 74 74 74 71 68 65 60 55 51 46 42 37 32 33 34 35 39 45 51 56 61 64 65 66 67
60 60 60 60 60 61 60 60 61 61 60 59 59 59 58 58 58 58 58 60 61 63 64 67 69 71 72 73 74 74 74 74 74 74 74 75 75 75 75 74 73 71 67 63 59 55 51 46 42 38 32 30 30 31 35 41 47 52 58 62 65 67 68
61 62 61 61 61 61 61 62 62 62 61 60 60 59 58 57 58 59 59 60 61 63 65 68 70 72 74 75 75 76 76 76 75 75 75 76 76 76 75 75 73 70 66 61 57 53 50 46 42 39 33 28 27 28 32 37 42 46 51 58 63 67 69
62 62 61 61 61 61 62 62 63 62 62 61 60 59 58 57 59 59 59 60 62 64 67 69 71 73 75 76 76 77 78 78 77 77 77 77 77 76 76 75 73 69 64 59 55 52 49 45 43 39 33 27 25 28 32 36 40 43 47 53 59 64 68
63 62 61 61 61 61 62 62 63 62 62 61 60 59 59 58 59 59 60 61 63 65 68 70 72 74 75 76 77 78 79 79 79 79 79 78 78 78 77 75 73 69 63 57 53 50 47 44 42 40 34 27 25 28 32 34 38 41 44 49 54 59 64
64 62 61 61 61 61 62 62 62 62 62 61 61 61 60 59 59 60 61 63 65 67 70 72 73 75 76 76 77 78 79 80 80 80 80 79 80 79 78 76 73 68 63 57 51 48 46 42 40 39 35 28 25 28 31 32 35 39 42 45 49 53 58
64 63 62 61 61 62 62 62 62 62 62 62 62 62 61 59 60 61 63 64 67 69 71 73 74 75 76 77 78 78 79 80 80 81 80 80 81 81 79 77 73 67 62 57 51 47 44 40 38 38 35 29 24 26 28 30 31 34 38 41 44 47 51
65 64 63 62 62 62 62 62 62 62 63 63 63 62 61 60 61 63 65 67 69 71 73 75 76 76 77 78 79 79 80 81 81 81 81 81 81 81 80 77 73 67 62 56 50 46 42 38 36 36 35 30 24 23 26 28 29 31 34 37 40 42 45
66 65 64 63 63 63 62 62 62 63 63 63 63 63 62 62 63 65 67 69 71 73 75 76 78 78 79 79 80 81 82 82 82 82 82 81 82 81 80 77 73 66 61 55 49 45 40 36 35 34 33 31 25 22 24 27 28 30 32 34 36 37 40
66 65 65 64 63 63 63 63 62 62 62 63 64 65 64 65 66 68 69 71 73 75 77 78 79 80 80 80 81 82 83 84 84 84 83 82 82 80 78 76 71 65 60 55 49 43 38 35 34 33 32 30 26 22 24 26 27 28 30 32 33 34 36
66 66 65 64 64 63 63 63 62 62 63 64 65 66 67 67 69 70 72 74 76 78 79 80 81 81 81 81 82 83 84 85 85 85 85 84 82 79 76 73 69 64 58 53 47 42 37 33 32 32 31 30 28 23 23 26 27 27 29 31 32 33 34
67 66 65 65 65 65 64 63 63 63 64 65 66 68 69 70 72 73 75 77 79 80 81 82 82 82 82 82 83 84 85 86 86 87 86 85 82 78 74 70 66 61 56 51 46 41 36 31 30 31 30 30 29 25 24 26 28 28 30 31 31 33 34
67 67 66 66 66 66 65 64 64 65 65 66 68 69 71 72 74 76 77 80 81 81 82 83 83 84 84 84 84 85 85 86 87 87 87 84 81 77 72 67 63 59 54 49 43 39 35 30 29 30 29 30 31 28 25 27 29 30 31 31 31 32 33
67 67 67 67 66 66 65 65 66 66 67 68 69 71 73 75 77 78 79 81 82 82 82 83 84 85 86 86 86 86 85 86 87 86 85 82 78 74 69 64 60 56 51 46 41 37 34 29 27 29 29 30 33 31 28 29 32 32 30 29 29 30 32
68 67 67 67 67 66 66 67 68 68 69 70 72 74 76 77 79 81 82 83 83 83 83 84 85 87 88 88 87 86 86 86 86 84 82 78 75 71 66 60 57 53 49 44 39 35 33 29 27 29 30 31 34 34 30 30 35 35 31 28 28 28 29
68 67 67 67 67 67 68 69 70 71 72 73 74 76 78 80 81 83 84 84 84 84 84 85 86 87 88 88 87 86 85 85 84 81 77 74 71 67 62 57 54 50 46 42 37 34 32 29 26 28 30 32 35 36 32 32 36 37 33 31 31 29 28
69 68 68 68 68 68 69 71 72 74 75 76 76 78 80 82 83 85 85 85 85 85 86 86 87 87 88 88 87 86 85 82 80 76 72 69 67 62 58 54 51 47 43 39 35 32 31 29 26 27 30 32 35 37 33 32 36 37 36 36 36 33 31
69 69 69 69 69 70 71 73 74 76 77 78 79 80 82 84 85 86 86 86 87 87 87 87 87 87 88 88 87 86 83 79 75 71 67 65 62 57 53 50 47 44 41 37 33 31 30 29 26 26 29 32 35 37 35 33 36 38 39 41 40 38 36
69 69 70 70 71 72 74 75 77 78 79 80 82 83 84 86 86 87 87 88 88 88 88 88 88 88 88 87 86 84 80 75 69 65 62 60 57 52 49 46 43 41 39 35 32 29 28 28 25 25 29 32 35 38 36 34 36 40 43 45 45 42 41
70 71 71 72 73 75 76 78 78 80 81 83 85 85 86 87 88 88 88 89 89 90 89 89 89 88 88 87 84 81 77 70 64 60 58 55 52 47 44 40 38 38 37 33 30 28 27 27 25 24 28 32 35 38 38 35 36 42 47 49 49 47 46
71 72 72 74 76 77 79 80 81 82 84 86 87 88 88 89 89 89 90 90 90 90 90 90 89 89 88 86 83 78 72 66 59 56 53 51 46 42 37 34 34 35 34 31 29 28 26 26 25 24 27 31 35 40 41 38 37 43 50 53 52 51 50
72 73 74 76 78 79 81 82 84 85 87 88 89 89 90 90 90 90 91 91 91 91 90 90 89 89 88 85 81 74 67 61 55 51 49 45 40 35 31 29 30 32 31 29 27 26 25 26 26 25 27 31 36 41 44 42 39 43 51 56 56 54 54
73 75 77 78 80 81 83 84 86 87 89 90 90 91 91 91 92 92 92 92 92 91 90 90 89 87 86 84 78 70 63 57 51 47 44 39 33 28 26 25 26 27 28 27 25 24 24 25 26 25 27 31 36 41 46 46 42 43 51 57 58 57 57
76 78 80 80 81 83 85 86 88 89 90 91 92 92 92 93 94 94 94 94 93 92 91 90 88 86 84 81 75 66 59 53 47 42 37 32 27 23 22 22 23 24 24 24 24 24 24 24 25 26 27 30 36 42 46 48 46 45 49 56 60 60 59
79 80 82 83 84 85 87 88 89 91 92 92 93 93 94 95 95 95 95 95 94 93 91 89 87 84 82 78 71 63 56 49 41 35 30 25 22 21 20 19 20 21 22 23 23 23 24 24 24 25 27 29 35 41 47 50 50 48 49 53 59 61 61

ECMWFFLT1_250_spd_006.txt.gz
Wind_Speed
31 32 33 34 35 35 36 37 38 39 39 40 40 41 41 42 43 44 45 46 46 47 47 47 47 48 48 48 48 48 48 47 47 48 48 48 49 49 49 50 50 50 50 51 51 52 54 55 56 57 57 56 55 53 52 51 50 50 50 50 50 51 53
33 33 34 35 36 37 38 39 39 40 41 42 42 43 43 43 44 45 47 48 48 48 49 49 49 49 49 49 50 50 50 49 49 49 49 49 49 49 50 50 50 50 51 51 52 54 55 57 58 59 60 59 58 56 55 53 51 51 51 50 51 52 53
35 35 36 36 37 38 39 40 41 42 43 44 45 45 45 45 45 47 48 49 50 50 50 50 50 50 50 50 51 51 51 51 50 50 50 50 50 50 50 50 50 51 51 52 53 55 57 59 60 61 62 62 61 59 57 55 53 52 51 51 50 51 53
38 38 38 38 39 40 41 41 42 43 45 46 47 47 47 47 47 48 50 51 51 51 51 52 52 52 52 51 51 52 52 52 52 52 52 52 51 51 51 51 51 51 52 53 54 56 59 60 62 63 64 64 63 62 60 58 55 54 52 51 50 50 52
40 40 40 40 41 42 43 43 44 45 46 48 48 49 49 49 48 49 51 53 54 53 53 53 53 54 53 53 53 53 53 53 53 53 52 53 52 52 52 52 52 52 52 53 54 57 60 62 64 64 65 65 65 64 62 60 58 56 54 51 50 50 51
43 43 43 43 43 44 45 45 46 47 48 49 50 51 51 51 50 51 53 55 56 55 55 55 55 55 55 55 54 54 54 54 54 53 53 53 53 53 53 53 53 52 53 54 55 58 61 63 65 66 66 66 66 65 64 63 61 58 56 53 51 50 50
45 45 45 45 45 46 47 48 48 49 50 51 52 53 53 52 52 54 56 58 58 57 57 57 57 56 56 55 55 55 55 55 54 54 53 54 54 54 54 54 53 53 54 55 57 59 62 64 66 67 67 67 67 66 66 65 63 61 58 56 53 51 50
48 48 48 48 48 48 49 50 50 51 52 53 54 54 55 55 55 57 58 59 59 59 59 59 58 57 57 56 56 56 55 56 55 55 54 54 54 55 54 54 53 54 55 57 59 61 63 65 67 67 67 67 67 67 66 66 65 63 61 59 56 53 51
50 50 50 50 50 50 51 51 52 53 54 55 56 56 57 57 58 60 60 60 61 60 60 60 58 57 57 57 57 56 56 56 56 56 55 55 55 55 55 54 54 55 57 59 61 63 65 66 67 67 67 67 67 67 66 66 65 64 63 61 58 55 52
51 52 52 53 53 53 53 53 54 54 55 56 57 58 59 59 61 61 61 61 62 62 62 61 59 58 58 58 58 57 57 57 57 57 56 56 56 56 55 55 55 57 59 62 64 65 66 67 67 67 67 68 67 67 67 66 65 64 63 62 60 57 54
53 53 54 54 55 55 55 55 55 57 58 58 59 60 61 62 62 63 62 62 63 63 63 62 60 59 59 58 58 58 58 57 57 57 57 57 57 57 56 56 57 59 61 64 66 66 67 67 67 68 68 68 68 68 67 66 65 65 64 62 60 58 56
54 55 56 56 56 56 56 57 57 59 60 60 61 62 63 63 64 64 63 64 64 65 64 63 61 60 59 59 59 58 58 58 58 57 57 57 57 57 57 58 59 61 63 65 67 68 68 68 68 68 69 69 69 69 69 67 66 66 66 64 61 59 56
56 57 58 58 58 58 58 59 60 61 62 63 64 64 64 65 65 65 64 65 66 66 65 64 62 61 60 59 59 59 59 59 58 57 57 57 58 58 58 59 61 63 65 67 68 69 70 70 70 70 71 71 70 70 70 69 67 67 67 65 62 58 55
57 58 60 61 60 60 61 61 62 63 64 65 66 66 67 67 67 66 66 67 67 67 66 64 63 62 61 61 60 60 60 59 58 58 57 58 58 59 59 61 63 65 67 69 70 71 72 72 73 73 74 74 73 72 71 70 69 69 68 66 62 58 54
60 60 61 62 63 63 63 64 64 65 66 67 67 68 69 69 68 67 67 68 68 67 67 66 64 63 63 62 61 61 60 60 59 58 58 58 59 59 61 62 64 67 69 71 72 73 74 75 76 77 77 76 75 73 72 71 71 70 70 67 63 58 53
63 64 64 64 64 64 65 66 66 67 68 69 69 70 70 70 70 69 69 70 69 68 68 67 65 65 64 63 62 61 61 60 60 59 59 59 60 61 62 64 66 69 71 72 74 76 77 79 79 80 80 79 77 75 73 72 72 71 70 66 61 57 52
66 66 66 66 66 66 66 67 68 69 70 71 71 71 72 72 71 70 71 71 70 69 69 68 67 66 65 64 63 62 61 61 61 60 60 60 61 63 64 66 68 70 72 74 76 79 80 81 82 82 82 82 80 77 74 73 72 72 69 64 59 54 49
67 67 68 68 68 68 68 69 70 70 71 72 73 73 73 73 72 73 73 72 71 70 70 69 68 67 66 65 63 62 62 62 62 61 61 61 63 64 67 68 70 71 74 76 79 81 82 83 83 84 84 83 81 78 75 73 72 71 67 60 55 51 46
68 68 69 70 70 70 71 71 72 72 73 74 75 75 75 74 74 74 74 73 72 71 70 70 69 68 67 65 64 63 63 62 62 62 62 63 64 66 68 69 71 73 76 78 81 83 84 84 84 85 86 85 82 80 77 74 72 69 63 57 52 47 42
69 70 70 71 72 72 73 73 74 74 75 76 76 77 76 76 75 75 75 74 73 71 70 70 69 69 67 66 65 64 63 63 62 62 63 64 65 67 68 70 72 74 77 80 82 84 85 86 86 87 87 86 83 80 77 74 71 66 59 53 49 44 38
71 71 72 72 73 74 75 75 75 76 76 77 77 78 78 78 77 77 76 75 73 72 71 70 70 69 68 67 66 65 64 63 63 63 64 65 66 67 69 71 73 75 79 82 84 85 87 88 88 88 88 87 84 80 76 73 69 62 55 50 46 40 35
73 73 73 74 75 76 76 77 77 78 78 79 79 79 80 80 79 78 77 76 74 73 72 71 70 70 69 67 66 65 64 64 64 64 65 66 67 68 70 72 74 77 80 83 85 86 88 89 89 89 89 88 84 79 74 70 65 58 51 47 43 37 32
74 75 75 76 76 77 78 78 79 79 80 81 82 82 81 81 81 80 79 77 76 74 73 71 70 70 69 68 67 66 65 65 64 64 65 66 68 69 71 74 76 79 82 85 86 87 88 89 89 89 89 88 84 79 73 68 61 54 48 44 40 34 30
77 77 78 78 79 79 80 80 81 81 82 83 84 84 83 83 82 81 80 79 77 76 74 72 71 71 70 69 67 66 66 65 65 65 66 68 70 71 73 76 79 81 84 87 89 89 90 89 89 89 89 88 85 80 72 65 58 51 45 42 37 31 29
79 80 80 81 81 81 82 82 82 83 84 85 85 85 84 84 83 82 81 80 79 78 75 73 72 72 71 69 68 67 66 65 65 66 68 70 72 73 76 79 81 83 86 89 90 91 91 90 89 87 86 84 82 78 70 61 54 47 42 38 34 30 28
82 83 83 84 84 84 84 84 84 85 86 86 86 86 86 85 84 83 82 81 80 79 76 74 73 72 72 71 69 67 66 66 67 68 70 72 74 76 78 81 83 85 87 90 91 91 91 90 88 85 82 78 75 71 65 57 50 44 39 35 32 30 28
85 85 85 86 87 87 86 86 86 87 87 87 87 87 86 86 84 83 82 81 80 79 76 74 73 72 72 70 67 66 68 69 70 70 72 74 76 78 80 83 85 87 89 91 92 91 90 89 86 82 78 72 68 64 59 52 46 40 36 32 30 30 29
86 87 87 88 88 88 88 88 87 88 88 88 88 88 87 86 85 83 82 80 79 78 76 74 73 72 71 68 67 68 71 72 72 73 75 76 78 80 83 85 87 89 91 92 92 91 90 87 84 79 73 67 62 57 52 47 42 37 32 30 30 29 29
88 88 88 89 90 90 89 89 89 89 89 89 89 89 88 86 84 83 81 80 79 77 75 74 73 71 71 70 70 72 73 73 74 76 77 78 80 82 85 87 89 90 92 92 92 90 88 85 80 75 68 61 56 50 45 40 36 32 29 27 28 30 30
89 89 90 91 91 91 90 90 90 90 90 90 90 89 88 86 84 83 81 80 78 76 75 74 73 71 71 72 73 74 74 75 77 78 80 81 83 85 87 89 91 92 93 92 91 89 85 81 76 70 64 56 50 45 40 34 31 30 28 26 27 30 31
90 91 92 92 92 92 92 91 91 91 91 91 90 89 88 86 85 83 81 80 78 76 75 74 73 73 73 73 74 75 76 78 79 81 82 84 85 87 89 91 93 93 93 91 89 86 82 77 71 65 59 52 45 41 38 34 30 30 29 27 28 31 33
92 92 93 93 93 93 93 93 93 92 92 92 91 89 88 86 85 83 81 79 77 76 75 75 75 75 75 76 77 78 79 81 83 84 85 86 87 89 91 92 93 93 92 90 87 83 78 72 66 59 53 48 42 38 35 32 28 27 28 29 29 32 34
93 94 95 95 95 94 94 94 93 93 92 91 90 89 87 86 85 83 80 77 74 74 75 76 77 78 78 79 80 81 82 84 85 86 87 88 89 91 91 92 93 91 90 88 84 79 73 66 60 55 49 44 39 35 32 29 28 28 29 29 30 33 36
95 95 96 96 96 96 95 95 94 94 93 91 90 88 87 85 83 81 79 76 74 75 77 79 79 80 81 82 83 84 86 87 88 88 89 90 91 92 92 91 91 89 87 84 80 74 68 61 55 51 46 40 35 32 29 28 28 28 28 29 30 34 38
96 96 96 97 97 97 97 96 96 94 93 91 89 87 86 84 81 79 78 77 77 78 79 80 81 83 83 85 86 87 88 89 90 90 92 92 92 92 91 90 89 87 83 80 76 69 62 55 50 47 42 37 32 28 27 28 27 26 27 29 30 35 40
97 97 97 97 98 98 98 97 96 94 92 90 88 85 83 81 79 78 78 79 79 80 81 82 84 85 86 87 89 90 91 91 92 92 93 93 92 91 89 87 86 83 79 75 71 63 54 48 44 42 39 35 30 26 25 27 27 26 27 28 31 36 42
97 97 98 98 99 98 98 97 95 93 90 88 85 82 80 79 79 79 80 81 82 83 84 85 86 87 89 90 91 92 93 93 93 93 93 92 92 90 87 85 83 79 73 68 63 55 47 41 39 38 36 33 29 26 25 26 27 27 27 28 30 37 45
98 98 99 99 98 98 97 95 93 90 87 84 82 80 79 79 80 81 82 84 85 86 87 88 89 90 91 92 92 93 94 94 94 93 92 91 90 88 85 82 78 72 65 58 53 48 44 40 37 36 34 32 29 27 26 27 27 27 28 28 30 36 45

ECMWFFLT1_250_spd_009.txt.gz
Wind_Speed
29 30 32 34 34 34 33 34 38 39 39 40 40 40 42 43 44 44 44 45 46 48 49 51 51 51 51 51 51 50 50 50 50 50 50 50 50 50 50 50 50 50 49 48 48 48 47 46 45 45 44 43 43 43 44 45 46 47 48 49 49 49 48
30 30 32 34 35 36 36 36 39 40 41 41 41 41 42 44 45 46 46 47 48 49 51 52 53 53 53 53 53 52 51 51 51 51 51 51 51 50 50 50 50 50 49 48 48 48 47 46 46 46 45 44 44 44 45 46 48 49 51 52 52 51 50
31 32 33 34 35 36 36 36 39 42 42 43 43 43 44 45 46 47 48 49 50 51 52 54 55 56 55 55 54 54 53 53 53 52 52 51 51 51 51 51 50 50 50 49 48 47 47 46 46 46 45 44 44 45 46 48 50 52 52 53 53 53 52
33 34 35 36 37 37 37 38 41 43 43 44 44 44 45 46 47 48 49 50 51 52 54 55 57 58 58 57 57 56 56 56 56 55 53 53 52 52 52 52 51 50 49 49 48 48 47 46 46 46 45 45 44 46 47 50 51 53 55 55 55 54 54
35 35 36 37 38 39 39 40 43 44 45 45 46 46 47 48 49 50 51 52 53 54 55 56 58 59 60 59 58 58 59 59 58 57 56 54 54 53 53 53 51 51 50 49 48 48 47 47 47 46 46 46 46 47 49 51 53 55 56 57 57 57 56
36 36 37 39 40 41 40 41 44 47 47 47 48 48 49 49 50 51 52 54 55 56 57 58 60 61 62 61 60 60 60 60 60 59 58 56 55 55 54 54 53 52 51 51 50 49 48 48 48 47 48 48 49 50 51 53 55 56 58 60 60 59 58
38 38 39 39 41 42 41 42 46 49 49 49 50 50 51 51 52 53 54 55 56 57 58 59 62 63 63 63 62 62 62 62 61 61 60 58 57 56 55 55 54 54 53 52 51 51 50 49 49 49 50 50 52 53 55 56 58 59 61 62 62 61 60
41 41 41 41 42 42 42 45 50 52 51 51 51 52 53 53 54 55 56 57 58 59 59 61 63 65 65 65 64 64 64 64 63 62 61 60 59 57 56 56 56 56 55 54 53 52 52 51 51 52 52 53 55 57 59 60 61 63 64 64 63 62 62
44 44 42 41 42 41 41 47 54 55 53 53 54 54 55 55 56 57 58 59 60 60 61 62 64 66 67 67 67 67 66 66 65 64 63 62 60 59 57 56 56 56 56 55 54 54 53 53 53 54 55 56 58 60 62 64 65 65 66 65 64 63 62
46 47 45 44 44 43 41 47 54 55 55 55 56 56 57 57 58 59 60 61 61 62 63 64 65 67 68 69 69 68 69 68 67 66 64 63 62 61 59 58 57 56 56 57 56 56 56 56 56 56 57 59 61 62 64 67 68 69 68 67 66 65 63
48 49 49 48 47 47 47 49 53 55 56 56 57 58 59 59 60 61 62 63 63 64 65 64 66 69 69 70 70 71 71 70 69 68 66 65 64 63 61 60 58 57 57 57 57 57 58 58 58 58 59 60 62 65 66 68 70 71 70 69 68 68 67
50 51 52 51 51 51 52 53 54 56 57 57 59 59 60 61 62 63 64 65 66 66 64 63 68 71 71 71 72 72 72 72 71 69 68 66 66 65 63 61 59 58 58 58 59 59 59 60 60 61 61 62 63 66 68 70 73 73 72 71 71 71 68
51 53 54 54 55 54 55 55 56 57 58 59 60 61 61 63 63 64 67 67 65 63 62 66 72 73 72 74 74 74 74 73 72 71 69 67 66 66 64 62 60 60 60 60 60 60 60 61 62 63 63 63 64 66 69 71 73 73 73 74 74 72 70
53 55 56 57 57 58 58 58 58 59 60 61 62 62 63 64 65 67 68 64 59 59 64 70 74 74 74 76 76 76 76 75 73 72 70 69 68 66 65 63 61 61 61 61 62 61 61 62 63 64 64 65 65 66 68 70 72 74 76 76 76 74 71
54 56 57 58 59 60 60 60 61 62 62 63 64 64 65 66 66 68 65 56 53 59 68 73 75 76 77 78 78 78 78 76 75 73 71 70 69 68 66 64 62 62 61 62 62 62 62 62 63 64 65 66 66 67 68 70 73 77 77 76 75 74 71
56 57 59 60 61 61 61 62 63 63 64 65 65 66 67 67 68 69 65 56 54 61 71 77 77 78 79 79 80 80 79 78 77 75 73 72 70 69 68 65 64 63 62 62 61 62 62 63 64 65 66 67 68 69 70 73 76 78 78 77 75 72 69
59 60 61 63 63 63 64 64 64 66 67 66 65 67 67 67 68 67 60 55 58 67 77 80 78 79 80 81 81 81 80 79 78 76 75 73 72 71 69 67 65 63 62 62 62 62 62 63 64 65 66 68 69 70 73 76 79 80 79 78 75 72 67
62 63 64 65 66 66 66 67 67 68 68 67 67 68 68 68 67 59 53 58 67 75 79 79 79 80 81 81 82 81 81 80 79 77 76 75 74 72 70 68 66 64 63 63 63 63 63 64 64 65 66 68 70 73 75 79 82 83 83 81 78 73 67
65 65 66 67 67 68 68 69 70 69 69 69 70 71 70 68 62 56 58 68 76 79 79 79 80 81 81 82 83 82 82 81 80 78 77 76 75 73 70 68 66 65 64 63 63 63 64 64 64 65 68 69 72 75 78 81 83 84 85 84 80 74 67
66 67 68 69 69 69 70 71 71 71 71 72 73 73 73 71 66 64 69 75 77 78 79 80 81 81 82 83 83 83 82 82 80 79 78 77 75 73 70 67 66 64 63 63 64 64 64 65 66 67 70 72 74 77 79 81 83 84 84 83 78 72 66
68 68 69 69 69 70 72 72 73 74 74 75 77 77 77 76 74 74 77 79 79 80 81 82 82 83 83 84 84 84 83 81 80 80 78 77 75 71 66 65 64 62 63 64 65 66 66 66 67 69 72 75 77 79 80 81 82 82 82 80 75 69 63
69 69 70 70 71 73 74 75 75 76 77 78 79 80 80 80 80 81 82 82 82 83 83 84 84 84 85 86 86 85 83 82 81 80 77 76 73 67 64 64 63 63 65 67 67 67 68 68 70 73 75 77 79 80 82 82 82 81 80 77 72 66 60
70 71 72 73 74 75 76 76 77 78 79 80 81 82 83 83 84 84 86 86 86 86 86 87 86 86 87 88 88 86 85 83 81 79 77 75 71 67 66 67 66 65 67 68 68 69 70 71 73 76 78 80 81 82 83 84 83 81 78 75 70 63 57
71 72 73 74 75 76 77 78 79 79 80 82 82 83 84 85 86 87 88 89 89 89 89 89 88 88 89 90 89 88 86 83 80 79 77 73 69 67 68 68 68 68 68 69 70 71 72 74 77 79 81 82 83 84 84 84 83 79 75 71 66 59 53
73 74 75 75 76 77 78 79 80 81 82 83 83 84 85 86 87 88 89 90 91 90 91 90 90 91 91 91 90 89 85 83 82 79 75 71 67 65 67 69 70 71 71 72 72 73 75 78 80 81 83 84 85 86 85 83 81 76 71 67 62 55 48
75 76 77 77 78 78 79 80 81 82 83 83 84 85 86 87 88 89 91 91 92 92 92 92 92 93 93 92 91 88 84 82 80 76 72 69 66 65 68 72 73 73 73 74 75 76 79 81 82 84 86 86 87 87 84 81 78 73 68 62 56 49 43
78 78 78 79 79 79 80 81 82 83 84 85 85 86 87 89 90 90 91 92 93 93 93 93 93 94 93 92 91 87 84 81 78 74 71 69 66 67 71 74 74 73 75 76 77 79 81 83 85 86 88 88 87 84 81 79 75 70 63 57 51 45 38
80 80 80 80 81 81 82 83 84 85 85 86 86 88 89 90 90 91 92 92 93 94 94 94 94 94 93 92 90 88 84 79 75 72 70 66 66 69 72 74 74 76 77 78 79 81 82 84 86 87 88 88 86 82 79 76 71 66 60 53 47 42 36
82 82 82 82 82 83 84 84 85 86 87 87 88 89 90 91 92 92 92 93 94 95 95 95 95 95 94 92 90 87 82 77 74 71 67 64 67 72 73 74 76 78 79 80 82 83 84 85 87 88 88 86 83 79 74 69 66 63 57 50 44 40 35
84 84 84 84 84 85 85 86 87 88 89 89 89 90 91 92 93 93 93 94 96 96 96 96 96 96 94 91 89 85 81 77 73 68 65 66 70 74 75 76 78 80 81 83 84 85 86 86 87 88 86 83 81 77 68 63 62 60 54 48 42 38 34
85 85 86 86 86 87 88 88 89 90 90 90 91 92 93 94 94 94 95 96 97 96 96 96 95 95 93 90 87 83 80 76 68 63 66 72 74 75 77 78 80 82 83 84 86 87 88 87 87 86 84 82 80 73 63 59 59 56 51 46 40 35 31
86 87 88 88 89 90 90 90 91 91 91 92 93 94 94 94 95 97 97 98 98 97 96 96 94 93 92 89 85 81 78 74 69 68 72 76 77 79 81 81 83 84 84 85 87 87 86 84 83 83 82 80 77 69 60 57 56 53 49 45 39 33 30
87 87 88 89 90 91 91 92 92 92 92 92 93 95 95 95 97 99 99 98 98 97 97 96 94 93 90 87 83 79 76 73 72 74 77 78 80 83 83 83 85 86 86 87 87 87 86 84 81 81 81 78 73 66 60 55 52 49 48 43 37 32 30
86 88 89 90 90 92 93 93 93 93 93 94 95 97 97 98 100 100 99 99 98 97 97 96 94 91 88 84 81 78 76 76 77 79 81 83 84 84 84 86 88 88 87 87 87 87 87 84 81 80 78 73 67 62 58 53 48 46 45 41 34 30 28
88 88 88 89 91 92 92 92 93 95 96 97 98 99 99 100 101 102 101 100 99 98 97 94 91 89 86 83 81 79 79 80 81 83 84 86 87 87 87 88 89 90 90 89 88 87 84 82 80 77 73 68 63 60 56 51 45 42 41 38 32 28 26
89 90 91 91 92 92 92 93 95 97 98 99 100 100 101 101 102 102 102 101 99 97 95 91 87 86 85 84 83 82 83 84 85 86 87 88 89 90 89 89 90 92 91 88 86 84 82 79 76 72 69 66 62 58 53 48 43 39 37 34 31 27 25
92 93 93 92 93 93 95 97 98 98 99 101 101 102 102 102 102 102 102 100 98 94 91 87 85 85 86 86 86 85 87 88 89 90 90 90 90 91 91 91 91 91 88 85 82 80 78 75 72 69 66 63 59 55 51 47 41 37 35 32 30 26 24
93 94 94 96 97 98 98 99 100 101 102 103 103 103 103 103 102 102 100 97 94 91 88 86 86 86 87 88 88 88 89 91 92 92 92 92 92 92 92 90 88 85 83 81 79 76 74 71 69 67 64 60 56 53 50 45 41 36 33 31 29 26 24

ECMWFFLT1_250_spd_015.txt.gz
Wind_Speed
22 23 25 26 25 28 31 31 31 31 30 30 33 35 36 35 35 36 37 38 39 41 42 44 46 48 50 50 51 51 51 53 55 56 57 51 43 42 47 53 58 61 64 65 66 66 67 68 68 69 69 68 65 62 59 56 52 49 46 44 42 41 41
27 26 27 28 27 27 31 33 34 35 34 33 35 37 38 37 36 39 40 41 41 42 43 44 46 49 51 52 52 52 53 55 56 57 57 52 46 46 49 52 56 62 65 67 68 67 68 69 70 71 71 70 68 64 61 57 53 50 47 45 44 42 41
33 31 31 32 31 29 31 33 35 37 37 37 37 38 38 38 39 41 43 43 43 43 44 45 48 50 52 53 53 53 54 56 57 58 59 57 52 49 50 53 57 62 66 70 70 69 70 71 72 73 74 73 70 67 63 59 55 51 48 46 44 43 42
34 33 33 35 34 32 32 34 36 38 39 40 39 39 39 40 41 43 44 44 44 44 45 46 48 51 53 54 54 54 55 57 58 60 63 63 55 49 51 56 58 62 67 71 71 71 72 73 73 75 76 75 73 70 66 62 58 54 51 48 45 43 42
35 33 33 35 36 35 35 35 37 38 39 41 40 39 40 41 43 44 45 46 45 46 47 48 49 51 53 56 56 56 57 57 59 62 65 64 54 48 52 57 59 63 68 72 72 72 73 74 75 76 77 76 75 73 70 66 62 58 54 51 46 43 41
37 35 34 36 37 38 38 38 38 39 40 40 41 42 42 42 44 45 46 46 47 48 49 50 50 51 54 57 57 58 58 58 60 63 65 62 51 47 52 56 59 65 71 74 74 72 74 75 76 77 79 78 76 74 71 68 65 60 56 53 47 43 41
39 38 38 38 38 40 41 41 41 41 41 42 43 44 43 43 45 46 47 48 48 51 52 52 52 52 55 57 58 59 59 58 62 63 63 60 52 48 52 55 60 68 73 76 76 75 76 77 77 79 80 79 77 76 73 69 66 61 57 52 47 43 42
43 42 40 40 41 42 43 43 44 44 44 44 45 46 46 46 47 48 50 50 50 52 54 55 55 55 56 57 58 60 58 60 63 63 63 61 54 50 52 56 62 70 75 78 78 77 79 80 80 82 83 82 80 78 75 71 67 62 57 51 46 43 42
44 43 43 42 43 44 46 46 46 47 47 47 47 48 49 50 50 51 52 52 53 54 56 58 58 58 57 57 58 59 59 62 65 66 67 62 53 51 53 57 64 71 77 80 79 79 81 82 83 84 85 84 82 80 76 72 68 64 58 52 46 42 41
46 45 45 44 44 46 49 49 49 49 50 49 49 50 52 53 53 53 54 54 55 57 59 60 61 60 57 56 58 59 61 65 67 69 69 58 50 50 53 58 66 73 80 81 80 80 81 82 84 85 86 85 84 83 79 74 70 65 59 53 47 43 42
49 48 47 46 45 46 49 50 51 51 51 52 52 52 53 55 55 55 56 56 57 59 61 62 62 62 58 56 58 60 63 67 70 70 65 52 46 49 54 61 68 75 82 83 81 81 82 84 86 86 87 88 87 85 81 75 71 65 59 54 48 45 45
50 50 49 49 47 47 48 50 50 51 52 53 53 53 54 55 56 57 57 57 59 61 63 63 64 63 58 56 60 63 67 69 68 63 54 46 48 53 58 64 70 77 84 85 83 84 84 86 88 88 89 91 89 86 81 75 69 64 60 56 50 48 48
51 52 52 51 49 48 49 50 51 50 51 53 53 55 56 56 56 57 57 59 61 63 65 65 63 61 58 60 64 66 65 63 59 53 46 45 53 58 61 67 74 81 86 86 85 86 86 88 90 89 91 93 91 86 80 74 69 64 61 58 54 52 53
51 53 54 54 53 51 50 52 53 52 52 53 54 55 56 57 58 58 58 60 62 63 65 64 61 61 63 65 64 61 58 55 53 49 47 52 60 62 65 74 81 84 86 86 85 87 88 90 90 92 94 94 90 84 79 75 70 66 62 60 58 57 57
52 52 55 56 56 54 52 53 55 55 55 55 55 55 56 57 57 58 59 61 62 63 65 66 66 66 66 63 58 55 57 56 52 51 56 62 64 66 73 82 85 85 86 85 85 88 90 91 92 94 95 91 86 82 81 79 73 68 65 62 60 58 56
53 53 54 55 57 57 56 55 55 57 58 57 56 57 57 57 58 59 59 59 60 62 63 64 65 63 59 56 56 58 60 57 53 57 64 66 66 72 83 87 85 85 84 83 85 89 90 91 93 94 90 86 84 84 85 82 75 69 65 62 58 55 53
57 57 56 55 56 57 58 58 57 58 59 59 58 58 59 60 59 58 58 59 59 59 57 56 57 56 55 54 54 57 57 55 58 64 67 67 71 81 88 87 84 83 82 83 87 89 90 91 93 91 89 87 88 89 89 84 75 68 64 60 57 54 53
61 62 60 58 57 56 58 60 60 59 60 60 60 60 60 60 59 57 56 53 48 44 44 47 49 51 54 54 55 57 58 61 66 69 69 72 80 87 88 85 82 81 82 85 89 90 92 93 92 90 90 89 87 89 89 83 75 68 64 61 58 56 57
63 64 63 62 60 58 59 60 61 61 60 61 62 62 62 61 59 56 53 49 44 43 48 55 59 60 60 61 63 65 67 71 73 72 74 80 85 87 86 82 80 81 84 88 91 93 94 93 92 93 92 89 87 90 91 85 77 71 67 64 62 61 62
63 63 64 64 62 61 60 60 61 61 60 62 62 62 62 61 59 58 56 53 51 52 58 62 63 64 66 67 69 71 74 76 75 74 78 83 85 85 82 80 81 84 87 90 94 95 94 93 95 97 95 90 90 93 92 84 76 71 69 67 65 65 66
64 65 65 65 64 63 62 61 61 60 60 61 61 61 62 62 62 60 58 55 54 57 60 58 56 60 65 67 70 71 72 72 72 76 81 83 83 82 81 80 83 86 89 93 94 94 94 96 98 100 98 95 93 93 89 80 73 71 71 70 70 69 70
66 66 65 66 65 64 63 62 61 61 61 62 62 62 62 64 64 61 60 59 56 55 53 49 50 57 61 61 63 66 68 71 76 81 82 81 81 81 80 81 85 89 92 93 94 95 98 99 101 100 97 92 89 90 90 86 82 79 77 77 76 73 73
68 67 66 67 67 66 66 65 64 63 63 64 64 64 63 63 63 62 62 60 52 45 43 43 48 56 60 63 69 74 76 79 82 82 80 80 81 81 80 83 88 91 92 93 95 99 101 101 101 96 89 86 88 91 92 88 86 84 83 83 81 77 78
69 69 68 68 69 68 69 69 67 66 65 65 64 64 63 64 62 60 59 58 52 47 50 54 59 65 70 75 79 80 81 82 82 80 79 80 81 80 82 87 90 90 91 94 99 101 102 102 100 92 85 85 90 93 90 85 83 84 84 84 81 79 81
69 70 69 69 70 70 71 70 69 67 65 64 64 64 65 65 62 59 59 61 59 55 55 58 64 70 75 78 79 80 81 83 81 80 81 81 79 80 84 87 88 89 93 98 101 102 103 103 100 93 89 90 94 94 89 84 83 83 84 83 81 82 84
69 71 70 69 68 69 70 70 68 66 65 65 67 68 68 67 65 63 63 65 64 63 62 64 67 71 74 76 78 80 82 82 82 82 82 80 79 80 84 86 90 96 100 101 102 104 105 105 102 99 97 97 97 93 89 86 84 84 84 84 84 85 85
69 69 69 67 67 68 69 69 67 66 67 70 73 72 70 69 68 68 67 66 66 66 66 68 70 72 74 76 78 80 81 81 82 82 80 77 77 81 87 93 98 101 100 100 102 106 106 105 104 102 101 99 95 91 89 88 86 85 85 85 84 84 82
66 68 68 67 66 65 65 65 64 65 69 72 73 72 72 72 73 72 70 68 67 66 67 70 72 74 76 77 78 79 80 81 81 79 77 76 79 86 94 98 99 99 100 101 104 105 105 104 103 102 100 96 93 91 91 90 88 87 86 86 84 82 79
65 66 66 65 63 63 65 66 63 61 66 72 74 76 78 78 76 74 71 69 70 71 72 74 75 76 77 77 77 78 79 80 78 77 78 81 86 93 98 98 97 98 100 103 104 105 106 106 104 101 97 93 91 91 92 90 89 88 87 86 83 79 75
68 68 66 65 66 68 72 71 64 57 61 70 77 80 82 81 77 76 75 75 76 76 76 74 74 75 75 75 75 75 75 75 78 81 84 89 93 98 100 99 97 96 99 103 106 106 107 106 104 98 93 90 90 92 91 90 90 89 88 86 81 76 73
72 73 72 71 71 73 74 72 64 56 56 67 77 83 84 84 82 79 79 79 78 77 75 74 74 75 74 74 75 76 77 82 86 89 91 94 98 100 100 100 98 98 101 104 106 106 106 105 101 94 90 89 91 92 92 91 91 90 88 84 79 75 71
74 76 77 76 75 74 72 69 64 57 55 62 74 81 83 84 84 81 80 79 77 75 75 76 77 76 75 76 80 85 90 92 94 95 97 100 101 100 101 101 102 103 104 106 106 106 105 101 95 90 88 90 92 93 94 93 92 90 87 82 78 74 70
76 76 77 77 75 73 72 69 64 59 55 57 65 75 81 84 85 83 81 79 78 79 81 82 82 81 81 86 92 97 98 98 99 102 103 102 101 101 103 104 105 105 105 106 106 105 101 95 90 89 90 92 94 95 95 93 91 88 84 80 77 73 69
78 77 77 78 77 75 73 68 63 59 55 55 62 72 79 83 85 85 85 83 83 85 87 88 89 90 93 98 101 102 103 104 105 104 102 100 102 105 106 106 106 106 107 107 105 101 96 92 91 92 94 96 96 96 95 92 89 86 82 79 75 71 67
80 80 80 80 79 75 71 68 64 61 56 57 66 76 81 82 84 85 86 87 89 91 93 94 95 98 101 103 104 105 106 105 102 99 99 102 106 107 107 106 106 107 107 106 101 97 94 92 93 96 98 97 96 95 92 90 87 84 81 77 74 69 65
80 80 80 79 77 75 72 69 67 64 58 56 64 74 78 80 84 88 90 93 95 95 96 97 98 101 103 104 104 102 100 97 95 97 102 106 107 107 108 108 108 107 105 101 98 96 95 95 97 99 99 97 95 92 89 86 85 82 79 76 71 67 63
79 78 77 76 75 75 74 72 70 69 64 60 62 67 69 71 76 81 84 88 91 93 96 99 101 102 102 100 98 95 93 93 97 102 106 107 107 108 108 108 106 104 101 98 97 97 97 98 99 100 99 97 93 89 86 84 82 79 76 72 68 65 61
79 78 77 77 77 77 78 76 74 73 70 67 68 73 76 78 81 83 85 88 93 96 98 99 99 99 98 95 94 94 95 99 104 108 109 109 108 108 107 105 102 99 98 98 98 98 99 100 102 101 99 94 90 88 85 81 77 74 70 67 63 61 59

ECMWFFLT1_250_spd_021.txt.gz
Wind_Speed
29 28 27 27 26 26 27 28 29 30 30 29 29 29 30 32 32 33 34 35 36 37 38 38 39 40 41 42 42 42 42 43 43 43 44 43 43 45 46 47 47 48 47 47 49 47 43 44 50 56 58 56 53 52 54 55 55 54 55 56 59 63 64
32 31 31 30 30 30 30 30 30 31 32 32 32 32 33 34 35 35 35 36 38 38 39 40 40 41 42 43 43 43 44 45 45 45 44 44 45 46 47 48 48 48 48 49 49 46 45 50 57 60 60 57 55 56 58 59 58 57 56 57 60 63 65
35 35 34 34 34 33 33 33 33 33 34 34 35 35 35 36 36 37 37 38 39 40 41 40 41 42 43 44 44 45 46 47 47 47 46 46 47 46 47 48 47 47 48 50 50 49 51 56 61 62 61 59 59 60 61 61 61 59 59 58 61 65 67
38 37 37 37 37 37 37 37 36 37 36 36 36 36 37 37 38 38 39 39 40 41 42 41 42 42 44 45 46 47 48 49 49 49 49 50 49 45 45 46 46 48 50 51 52 53 56 59 61 63 63 62 62 62 63 62 62 62 60 59 62 67 69
38 38 38 38 38 39 40 40 40 40 40 38 38 38 39 39 39 40 40 41 42 42 42 42 42 43 45 46 48 50 51 50 50 50 52 53 48 43 44 45 46 48 51 52 54 56 58 59 62 64 65 64 63 63 63 63 63 63 61 60 63 68 70
39 38 38 38 39 40 41 42 42 42 41 41 40 40 41 41 41 41 41 42 42 43 43 43 44 45 46 47 49 51 52 52 52 52 53 52 46 44 46 46 46 48 52 55 56 57 59 61 63 66 66 64 63 63 63 63 63 63 62 61 65 70 73
40 39 39 40 41 42 42 42 42 42 42 42 42 42 42 42 42 42 42 42 43 43 44 45 45 47 48 48 50 51 52 53 55 54 52 49 46 46 49 50 48 50 55 59 59 58 60 62 65 66 64 63 63 63 64 63 63 64 63 63 68 73 76
43 42 43 43 44 44 44 44 43 43 43 44 44 44 44 44 43 43 43 44 44 45 45 46 47 49 49 49 51 53 54 57 59 55 50 48 48 49 53 55 54 55 61 64 61 59 60 63 65 65 63 63 63 64 64 64 64 65 65 66 70 75 79
45 45 46 46 46 46 46 47 46 46 46 47 47 46 46 46 46 46 47 47 47 47 47 47 48 50 50 51 53 55 57 58 58 54 50 50 51 52 56 59 58 60 66 67 63 62 64 65 65 65 64 64 65 66 66 66 66 66 67 69 73 78 82
47 48 49 48 47 48 49 49 49 49 49 49 49 49 48 48 49 49 49 49 48 48 48 48 48 50 51 52 53 54 55 56 54 51 51 52 52 53 57 60 61 65 70 70 67 67 67 66 66 67 66 66 66 68 68 67 67 67 69 74 78 81 84
49 51 52 50 50 51 51 51 51 52 52 52 51 50 50 50 50 50 51 50 49 49 49 48 49 50 51 52 51 51 53 53 52 51 52 53 54 56 59 61 63 69 73 72 70 69 68 67 68 68 68 67 68 69 69 68 67 69 74 80 82 84 87
50 53 53 52 52 53 52 52 52 53 53 53 53 51 51 51 51 51 51 51 50 49 49 49 49 50 50 51 51 51 52 53 52 51 51 54 56 58 61 66 71 75 74 71 70 70 70 70 69 68 68 68 69 69 68 67 68 73 79 83 85 87 90
51 54 54 54 55 54 52 52 53 54 54 54 53 52 51 51 52 52 52 51 50 49 49 49 49 48 48 50 52 51 50 53 54 52 54 59 63 65 69 73 74 72 69 68 70 72 73 70 68 67 68 68 68 67 67 68 71 76 81 84 86 89 90
52 55 56 56 56 54 52 52 53 54 54 54 53 52 51 51 52 52 52 52 51 50 49 49 48 47 46 48 48 46 49 57 61 61 62 66 68 70 72 71 69 67 68 70 72 73 71 67 65 67 67 66 66 66 67 69 73 78 82 85 89 90 88
54 57 57 58 58 55 54 54 55 54 55 55 54 52 52 52 52 53 53 53 51 50 49 49 48 47 46 45 45 48 54 61 65 65 65 67 69 70 71 69 66 65 67 69 69 67 65 64 65 66 66 66 67 69 71 75 79 82 85 88 89 88 87
58 59 60 60 59 57 57 57 57 56 56 57 55 54 52 52 53 54 54 54 53 51 50 50 49 48 46 44 46 51 55 57 59 62 63 65 66 66 67 64 60 58 60 62 62 61 61 63 64 65 67 69 72 74 78 81 82 83 85 86 86 86 87
61 62 63 62 62 61 60 60 58 57 58 58 58 56 55 55 56 56 56 55 54 53 52 52 51 49 47 45 44 47 48 48 53 60 63 62 60 61 62 58 53 55 59 60 59 59 59 63 66 68 69 70 72 75 79 80 81 82 83 84 85 85 87
63 65 66 65 64 64 63 62 61 59 59 59 59 59 58 58 58 59 59 58 57 56 54 54 53 49 47 44 41 41 44 45 49 56 60 60 59 60 60 55 53 56 58 56 57 57 61 67 70 70 69 71 74 79 82 83 84 84 85 85 86 87 87
66 67 68 68 68 66 66 65 63 61 61 61 62 62 62 61 61 61 61 60 60 58 56 55 54 50 48 44 40 42 47 48 51 57 60 60 61 62 61 59 58 57 55 55 57 60 66 72 73 73 75 78 81 84 86 86 86 86 86 86 87 88 87
67 69 70 71 71 70 69 67 65 64 64 64 66 66 65 64 63 63 63 62 61 60 58 56 54 52 51 46 43 47 51 51 54 58 58 57 59 61 62 62 62 62 60 60 61 65 71 75 77 80 83 84 85 86 88 88 87 86 86 86 87 87 87
68 70 71 72 72 72 71 68 67 66 67 67 68 68 68 67 65 64 64 64 63 61 59 57 55 55 55 51 48 51 55 56 58 61 61 60 60 60 62 65 68 69 68 69 71 74 77 81 82 85 86 87 89 89 89 88 86 86 86 87 87 88 89
67 70 71 71 72 72 71 69 68 68 68 68 68 68 68 67 66 65 65 64 64 62 59 59 59 57 55 52 50 52 55 56 58 60 61 62 62 63 66 70 73 74 74 75 77 78 80 83 86 88 90 91 90 88 87 86 85 85 87 88 89 92 94
66 68 69 70 70 70 71 70 70 69 68 67 67 67 67 66 66 66 65 65 65 62 61 61 58 54 51 47 46 51 55 53 53 56 57 59 62 65 69 72 73 74 75 76 77 79 82 86 89 91 92 91 90 88 87 87 87 87 88 91 94 96 96
64 65 67 68 68 69 70 70 70 69 68 66 66 66 66 66 66 66 66 65 64 63 62 59 54 50 45 40 42 49 53 51 53 58 60 63 66 68 70 73 74 74 76 77 80 83 86 89 91 93 93 91 90 89 89 89 89 91 93 96 96 95 94
64 65 66 67 68 69 69 70 70 70 68 66 65 66 66 67 66 65 65 65 64 63 60 56 52 46 40 40 44 50 54 57 60 64 65 67 70 73 74 75 75 76 78 81 84 87 89 91 93 93 92 91 90 90 90 90 92 95 97 95 93 94 99
67 67 67 68 69 70 70 70 70 70 69 67 66 67 67 66 66 65 65 64 64 63 58 55 53 46 40 44 51 51 54 61 64 66 68 69 71 73 74 75 77 80 83 85 87 89 90 91 91 91 91 91 91 91 90 90 93 95 94 92 94 100 107
69 69 70 70 71 71 71 70 70 70 70 69 69 68 67 66 65 65 66 65 64 61 58 57 55 49 45 52 57 54 57 63 66 67 69 70 70 71 73 77 82 86 87 87 87 87 87 88 89 89 89 89 88 88 89 91 92 91 91 95 102 109 112
71 71 72 72 73 73 72 71 71 71 71 71 70 69 67 66 66 66 66 65 63 62 61 61 59 55 51 55 57 57 59 64 66 69 73 75 74 74 76 80 84 84 84 84 85 87 88 88 86 84 82 82 84 86 87 88 89 92 98 105 110 113 114
72 72 73 73 74 74 73 72 72 73 72 71 70 69 67 66 66 65 65 65 65 65 65 65 62 58 56 56 58 60 61 62 66 71 75 76 75 76 79 81 81 81 82 83 84 83 81 79 78 78 79 80 83 85 87 91 97 103 107 110 112 113 113
73 74 74 74 74 74 73 72 73 73 73 72 70 69 67 65 65 65 65 66 67 68 69 68 65 63 61 61 61 63 64 64 65 68 72 74 75 78 81 80 80 81 81 77 75 74 74 76 79 82 84 86 88 92 97 102 106 108 110 111 112 112 112
74 74 73 74 75 75 74 74 74 73 72 70 69 68 66 66 67 67 67 67 68 70 70 69 68 66 65 65 65 65 66 67 67 67 69 73 76 80 80 78 77 76 72 69 70 74 77 80 84 87 91 95 99 102 105 107 108 109 111 111 112 112 112
71 72 73 74 74 73 73 73 72 71 69 69 69 68 67 67 68 67 67 67 70 71 71 71 71 70 68 69 68 66 66 68 70 68 68 70 71 72 72 72 71 70 67 67 71 76 80 84 89 93 96 100 103 105 107 108 110 111 111 111 111 110 106
69 70 73 73 72 71 71 71 71 71 71 70 69 67 66 67 67 67 67 70 72 72 73 75 75 74 74 73 71 67 65 68 68 66 64 61 60 61 63 65 67 67 68 70 76 83 89 93 96 98 101 103 106 107 109 110 111 110 109 108 106 100 93
67 69 71 73 73 72 73 73 73 72 70 69 68 68 68 68 68 68 69 71 73 74 76 77 79 80 79 77 74 70 65 62 63 63 60 57 57 61 65 68 70 73 77 83 90 95 97 98 100 102 104 105 106 107 107 107 107 106 105 102 97 91 89
67 70 72 73 73 73 73 74 73 71 70 69 69 69 69 68 68 69 70 73 75 77 79 81 82 81 79 77 77 75 67 61 62 66 67 69 73 77 80 81 83 86 90 94 97 98 99 100 102 103 103 103 103 102 102 101 102 102 101 96 92 91 93
66 70 72 73 72 72 72 72 71 70 70 70 70 69 68 68 69 71 74 77 80 82 84 84 82 81 79 78 77 75 70 67 69 73 76 80 84 85 86 87 88 90 92 94 95 98 100 101 100 99 99 98 98 98 98 99 101 100 97 93 92 94 97
70 73 74 73 72 72 71 70 71 71 71 72 72 72 72 73 74 76 79 82 84 86 86 84 83 83 83 79 76 74 73 73 76 79 81 82 83 85 87 88 89 90 92 94 96 98 98 96 95 95 95 95 96 97 98 98 97 95 93 92 94 97 100
75 77 77 76 74 73 71 70 72 73 75 75 76 76 77 78 79 80 83 85 86 87 87 86 87 86 83 79 77 77 78 78 80 83 84 85 86 87 88 89 90 93 95 96 95 94 93 92 93 93 94 95 94 93 92 92 92 91 92 94 97 101 104

ECMWFFLT1_250_spd_024.txt.gz
Wind_Speed
26 26 26 26 27 28 29 29 30 30 31 31 31 32 32 34 35 35 36 36 36 36 37 37 36 37 37 37 37 37 38 38 39 39 40 42 44 46 47 44 43 44 42 38 38 41 43 43 44 45 46 48 50 52 53 53 53 52 51 51 52 53 54
30 29 29 28 29 30 31 32 33 34 34 34 34 34 35 35 36 37 38 38 38 39 38 38 37 38 38 38 39 39 39 40 41 42 42 43 45 47 46 43 42 42 40 39 41 44 45 46 47 49 50 51 52 55 58 57 54 53 52 53 53 53 54
34 32 32 31 31 31 32 34 35 36 36 36 36 36 36 37 37 38 39 39 39 39 39 39 39 39 39 40 40 41 41 43 44 44 44 44 46 45 42 39 38 38 38 40 42 44 47 49 50 50 51 51 53 58 61 59 55 54 55 54 54 54 54
36 35 34 34 34 34 34 35 36 37 37 37 37 37 37 38 38 39 39 40 40 40 40 41 41 41 41 41 42 43 44 45 45 46 46 46 46 43 39 37 36 36 37 39 43 46 48 48 49 50 49 50 55 61 63 60 56 57 57 55 54 54 55
38 38 37 37 37 37 37 37 38 38 39 39 39 39 39 40 40 40 41 41 41 41 42 43 43 44 44 44 45 45 46 46 47 48 49 49 47 44 41 39 36 34 36 39 44 48 49 50 51 50 48 51 58 62 62 60 59 61 59 55 54 55 56
41 40 40 41 41 41 40 40 40 41 42 41 41 41 41 42 42 42 43 43 43 43 44 45 45 46 47 47 47 47 47 47 47 49 50 51 50 48 45 40 36 36 39 43 46 49 52 52 51 50 51 56 61 63 62 63 64 63 58 54 55 58 58
43 43 43 44 45 45 44 43 44 44 44 44 43 43 43 43 44 44 45 45 45 45 46 47 47 48 48 48 47 47 48 48 48 49 50 52 53 52 48 42 40 42 45 46 48 52 53 53 52 54 57 60 63 63 63 63 63 60 55 54 57 60 60
45 46 46 47 48 47 46 46 47 47 47 46 46 45 45 46 46 46 46 46 47 47 48 49 49 49 48 48 48 48 48 49 49 49 51 54 55 52 47 43 43 47 49 51 53 54 54 55 56 59 61 62 63 61 58 60 60 57 54 56 60 61 62
48 48 49 50 50 49 48 49 50 50 49 49 48 48 48 48 48 48 48 48 49 49 49 50 49 49 48 48 47 47 48 49 48 49 51 54 53 50 46 45 48 52 55 56 55 55 55 56 57 59 60 60 58 57 58 62 62 58 56 59 62 63 63
49 50 51 51 51 51 50 51 52 52 51 50 49 49 50 50 50 50 49 49 50 50 50 50 49 48 48 48 47 47 48 49 49 49 50 50 48 45 46 49 52 55 57 55 53 54 55 55 57 59 59 58 56 59 63 64 61 58 60 64 66 66 64
51 51 52 53 53 52 52 53 53 53 53 52 51 51 50 51 51 50 50 50 50 50 50 49 48 48 49 48 47 47 48 48 49 48 48 47 46 45 46 50 53 53 54 52 52 54 56 57 59 61 61 60 60 61 63 62 60 60 63 66 66 65 63
52 52 52 54 54 54 54 55 55 56 56 55 54 52 52 52 52 51 50 51 51 50 49 49 49 50 49 48 48 47 47 48 49 47 45 45 45 45 46 49 50 52 53 52 52 54 57 60 62 65 67 66 61 59 59 60 60 61 63 64 65 65 66
53 53 53 54 56 56 56 56 57 58 59 58 56 54 54 54 53 53 53 52 52 51 51 51 51 52 51 50 49 48 47 47 47 47 44 41 42 46 50 52 53 54 55 53 53 56 60 62 64 67 68 64 59 57 58 59 60 60 61 63 66 69 72
54 54 54 55 57 57 58 59 60 60 60 59 57 57 57 57 56 56 56 55 54 54 53 53 54 54 53 52 51 48 47 47 49 50 49 47 48 51 55 58 58 57 57 56 56 57 61 64 64 65 64 59 56 57 58 60 61 60 62 66 71 74 78
55 55 55 56 58 60 61 62 62 63 62 60 59 59 59 59 59 59 59 58 57 57 56 56 56 56 56 55 53 50 49 51 53 53 53 55 56 56 58 60 59 57 58 59 59 61 64 66 65 64 63 60 58 59 61 62 63 64 68 73 77 79 81
57 57 57 59 61 62 63 64 65 65 64 62 61 61 60 60 61 62 61 61 61 60 59 59 59 58 58 58 56 54 53 53 54 55 55 56 58 59 61 61 60 62 64 64 65 66 68 68 67 65 63 62 62 63 63 64 67 71 75 78 80 81 82
59 59 59 61 63 65 66 66 67 67 67 65 64 63 62 62 63 64 64 64 63 63 62 62 61 61 61 60 59 57 56 54 52 51 50 50 53 57 61 63 65 68 68 68 69 68 66 65 64 62 62 64 66 66 65 68 71 74 77 79 80 82 84
60 60 62 64 66 67 68 68 68 69 69 68 67 65 64 65 65 66 67 66 66 65 64 63 62 62 61 61 59 58 56 53 49 45 44 46 48 54 60 63 64 65 65 65 65 64 63 61 61 62 65 67 68 67 68 69 71 74 78 80 82 84 87
62 63 65 67 68 68 70 70 70 71 71 71 70 68 67 67 68 68 68 67 67 66 65 64 63 62 62 61 60 58 55 51 45 41 44 46 46 51 56 57 58 62 63 61 60 61 62 63 64 67 70 71 72 73 74 76 78 80 82 83 85 88 90
65 66 68 69 69 70 71 72 72 73 73 73 72 70 69 68 68 68 67 66 66 65 64 63 62 62 62 61 59 57 54 49 41 38 44 50 50 54 56 54 56 59 58 56 58 62 64 66 68 71 74 75 77 79 81 83 84 84 85 86 89 91 93
68 69 70 70 70 71 71 72 73 74 74 74 73 71 69 68 66 65 64 64 64 63 63 62 62 62 61 60 59 57 54 48 39 37 45 54 57 58 58 56 54 51 49 53 60 65 66 67 69 73 76 79 80 81 83 84 85 85 87 90 92 94 95
69 70 70 70 70 70 70 71 72 73 73 73 73 71 68 66 64 63 62 62 62 62 62 62 62 62 62 62 60 58 55 48 40 40 48 55 59 60 60 59 54 49 50 55 61 64 67 69 71 74 77 79 80 81 82 84 86 87 90 92 94 95 96
69 70 70 69 69 69 68 69 70 71 72 72 72 70 68 66 64 63 63 62 62 62 63 63 64 64 64 63 61 60 57 50 44 46 52 55 59 61 60 59 59 58 59 60 62 64 68 71 73 75 78 79 81 82 84 86 89 91 93 94 95 96 97
69 70 69 68 68 67 67 67 68 69 70 71 71 70 69 67 66 65 65 64 64 64 65 65 66 66 65 65 63 62 60 54 49 51 54 57 61 63 62 61 62 64 66 67 68 70 73 75 77 78 79 81 83 85 87 89 91 93 95 95 97 98 97
69 69 68 67 66 65 66 67 68 68 69 70 70 70 69 68 67 66 67 67 66 67 67 67 67 67 66 65 65 64 62 59 55 56 58 60 64 68 69 70 70 70 72 73 74 76 78 79 80 82 84 85 86 87 88 89 91 93 95 96 98 98 96
67 67 67 66 65 66 67 68 68 68 69 69 70 71 70 69 68 69 68 68 68 68 68 69 69 68 67 66 66 66 65 63 61 61 61 63 65 69 72 74 75 76 76 77 78 79 81 82 84 86 88 89 89 89 90 90 91 93 95 96 96 96 95
67 67 67 65 66 67 68 69 70 70 70 71 72 72 71 71 72 72 71 70 69 69 69 69 69 69 67 67 66 66 66 65 64 62 62 62 64 68 72 74 77 78 78 77 78 80 81 83 84 86 87 89 90 91 91 91 92 93 94 94 94 93 92
67 67 67 66 67 68 69 70 72 73 73 73 73 73 73 73 73 73 72 71 71 70 69 69 70 69 68 67 66 65 65 64 63 62 62 64 65 68 70 72 73 74 74 75 77 77 77 77 79 81 83 85 86 86 87 89 89 89 88 88 87 87 88
68 67 68 69 69 71 72 73 74 76 76 76 75 74 73 73 72 72 73 73 72 71 69 69 68 67 65 65 64 64 64 64 63 63 64 64 65 66 67 66 66 67 68 68 67 67 69 72 74 75 76 77 78 78 79 80 81 81 82 83 84 87 90
71 70 70 71 72 73 74 74 75 76 77 77 76 75 74 74 74 75 74 74 73 71 69 67 65 64 64 65 64 63 63 62 63 63 63 64 65 65 65 64 64 65 63 59 59 65 72 75 74 72 72 72 73 73 73 75 78 82 86 88 90 92 96
74 73 73 73 74 75 76 76 76 78 79 79 78 77 76 76 77 77 76 75 73 71 68 67 66 66 66 65 64 63 63 63 63 64 64 65 66 67 67 68 69 68 64 62 66 74 77 75 73 73 72 72 73 74 77 82 87 89 91 92 93 94 97
75 75 75 75 76 77 77 78 78 79 80 80 79 79 78 78 78 78 77 75 72 69 68 68 69 69 68 67 65 65 64 64 64 65 66 67 68 70 71 73 75 76 74 74 78 80 77 74 73 73 72 74 77 81 85 88 90 90 91 91 92 94 96
76 77 77 77 78 78 78 79 80 80 80 80 79 80 80 80 80 78 76 73 71 70 71 71 71 71 69 67 66 66 66 66 67 67 69 70 72 74 75 77 80 80 80 80 80 78 74 71 71 71 74 78 82 84 86 87 88 89 89 90 91 92 91
75 75 75 75 74 75 76 78 79 80 80 80 80 81 81 80 79 77 75 74 73 73 74 73 73 71 70 68 67 68 68 69 70 72 73 75 78 79 80 81 82 80 79 80 78 74 71 70 72 77 82 84 84 85 87 88 88 89 89 90 90 89 86
74 74 73 73 73 73 75 76 78 78 79 80 81 80 79 77 76 76 75 74 74 74 73 73 72 70 69 69 69 70 72 74 75 77 78 80 83 84 85 85 85 83 83 82 79 77 77 79 83 86 87 86 87 89 89 89 88 89 89 89 87 85 83
76 76 77 76 76 76 76 77 78 78 79 80 79 78 76 75 74 75 75 74 73 73 73 73 72 71 71 72 73 74 75 77 78 80 82 84 86 87 88 89 90 91 90 88 86 86 86 88 89 88 87 88 90 90 88 87 88 89 87 85 83 83 84
77 78 78 78 77 77 77 78 78 79 79 79 77 76 75 74 73 73 74 74 74 73 74 74 74 73 72 72 74 76 78 80 82 83 84 86 87 88 90 93 95 95 93 90 88 87 87 88 89 89 90 91 91 88 87 88 88 86 84 83 84 85 86
77 77 77 77 77 77 77 77 78 78 78 77 76 75 74 73 73 73 74 75 75 76 76 76 75 74 72 70 73 77 79 81 82 83 85 87 89 91 93 93 91 86 83 81 82 84 87 90 92 93 93 92 90 87 87 87 85 83 83 84 86 87 89

ECMWFFLT1_250_spd_027.txt.gz
Wind_Speed
23 24 26 26 27 26 27 27 27 28 29 29 29 29 30 30 31 32 32 32 33 33 33 33 33 33 34 36 37 38 38 38 38 39 39 39 39 40 40 40 40 40 41 41 41 41 40 39 39 39 38 39 42 44 44 42 42 43 44 46 46 44 43
26 26 28 29 29 29 29 29 30 31 31 31 31 31 31 32 32 33 34 34 34 34 35 35 35 35 36 37 38 39 39 39 40 40 40 40 40 39 39 39 39 39 40 41 40 39 38 38 38 39 41 43 45 44 42 41 42 43 44 45 44 42 43
29 29 30 30 32 31 31 32 32 33 32 32 33 33 33 33 34 35 35 36 37 37 37 38 38 38 38 39 40 40 40 41 41 41 41 40 40 40 39 38 38 39 40 41 40 39 38 38 39 42 44 46 45 42 42 41 42 43 44 44 42 43 47
32 32 32 32 33 33 33 34 35 35 35 35 35 35 35 35 36 37 38 38 39 39 40 40 40 40 41 41 41 41 41 42 42 42 41 41 41 41 40 39 40 41 42 42 42 42 41 41 43 44 45 43 41 41 42 42 42 43 44 43 45 48 50
35 35 34 35 35 35 35 35 36 36 37 37 38 38 38 38 39 39 40 41 41 42 42 42 42 42 42 42 43 42 43 43 43 43 42 42 42 42 41 42 44 45 45 46 46 44 42 41 42 41 41 41 41 42 44 44 44 44 45 47 50 50 50
38 37 37 37 37 37 37 36 37 38 39 40 40 40 40 41 41 41 42 43 43 44 44 44 43 43 43 43 43 44 44 44 44 44 44 44 44 44 45 46 46 47 48 48 47 44 40 39 39 40 41 43 44 43 44 46 47 47 49 52 53 51 50
41 40 39 39 39 39 38 38 38 39 41 41 42 42 43 43 43 43 43 44 44 45 45 45 44 44 44 44 44 45 45 45 45 45 46 46 47 48 49 49 48 48 49 48 46 44 41 40 40 41 44 46 45 45 47 50 51 52 54 56 55 52 51
44 43 42 41 41 41 41 41 41 42 43 43 44 45 45 45 45 44 44 44 45 45 45 46 45 45 45 45 46 47 47 46 47 48 49 50 50 51 51 50 49 49 49 47 46 46 44 42 43 45 47 48 48 49 51 53 54 55 57 57 56 54 53
46 46 45 44 44 44 45 44 44 45 45 45 46 47 47 47 46 45 45 46 46 46 47 47 46 46 46 46 47 48 49 48 49 50 51 51 52 53 51 50 49 48 48 47 47 47 45 45 47 48 48 48 49 52 54 55 56 58 58 56 54 54 53
49 48 48 47 47 48 48 48 47 47 47 48 48 49 49 49 47 47 47 47 48 48 48 48 48 48 48 48 49 49 50 51 52 53 52 52 53 52 50 50 49 47 47 47 48 48 47 48 48 47 48 49 52 54 55 57 59 58 55 53 53 54 56
51 50 50 50 50 51 51 50 50 50 50 51 51 50 50 49 48 48 48 48 49 50 50 50 50 50 50 50 50 50 51 53 54 54 54 55 55 52 49 50 50 50 50 49 48 48 48 48 47 46 49 51 51 52 54 57 58 54 52 53 54 55 56
52 52 52 53 53 53 53 52 52 52 53 53 53 52 51 50 49 49 49 50 51 51 52 52 52 52 52 52 52 52 53 54 54 54 55 56 55 52 50 51 51 51 51 49 48 49 47 44 43 46 50 49 48 52 55 54 52 52 53 53 52 53 54
53 53 54 54 54 54 55 54 54 55 55 55 55 54 52 51 51 51 51 51 52 53 54 54 54 54 54 53 53 54 55 55 55 55 56 55 53 52 53 54 53 52 50 48 48 49 47 43 43 48 50 48 49 54 55 51 51 53 52 48 50 54 57
53 54 55 55 56 56 56 56 56 57 57 57 57 55 54 54 54 54 53 54 54 55 56 56 56 56 56 55 56 56 57 55 54 55 54 52 52 54 55 56 55 54 53 50 49 50 49 45 45 49 51 50 51 54 52 49 51 52 49 48 54 59 60
54 55 56 57 57 57 57 57 58 59 59 59 58 56 56 57 57 57 56 56 57 58 59 59 59 58 58 57 57 57 57 55 53 53 53 53 55 55 55 55 55 54 51 49 47 47 46 45 48 53 53 52 52 52 51 52 53 53 52 55 59 60 61
56 57 58 58 58 58 58 59 60 60 61 60 59 58 58 59 59 59 59 59 60 61 62 62 61 60 59 58 57 56 56 54 53 52 51 52 52 52 53 53 51 50 50 49 48 46 45 48 52 55 56 56 55 54 55 57 57 56 58 61 62 62 63
58 59 60 60 59 59 59 61 62 62 61 61 61 61 61 61 62 62 62 62 63 64 64 64 63 61 61 59 57 56 55 55 54 52 50 49 47 47 50 50 49 51 54 53 51 48 50 53 56 58 60 61 59 58 59 60 61 61 62 63 65 67 69
60 61 61 61 60 60 61 63 63 63 62 62 63 65 65 65 65 65 64 64 65 66 66 65 64 63 62 60 58 56 55 55 55 54 51 49 47 48 51 51 51 55 57 57 54 53 53 55 57 58 60 59 59 60 61 62 64 65 66 67 69 71 74
62 63 63 62 61 62 63 64 64 64 63 64 65 67 68 68 68 68 67 67 67 67 66 66 65 64 63 61 59 57 55 55 55 55 54 52 51 53 53 53 54 56 58 59 59 60 60 59 57 56 56 57 59 62 64 65 67 69 71 72 74 76 79
65 65 65 64 63 64 65 65 65 65 65 66 67 68 70 71 71 70 70 70 69 67 65 65 65 64 62 61 59 57 55 56 57 58 57 55 55 57 56 55 55 56 57 57 57 61 65 65 63 63 62 63 63 64 65 67 69 71 74 77 79 81 83
67 67 67 66 65 66 66 66 66 67 67 68 68 70 71 72 72 72 72 72 70 67 65 64 64 63 61 60 60 58 58 58 59 61 61 60 60 61 60 59 58 58 58 58 59 63 67 67 68 70 71 71 70 70 70 72 73 76 79 82 84 86 87
69 69 69 68 68 68 68 67 68 69 69 69 70 71 72 72 73 73 73 72 70 68 66 65 64 62 61 61 61 61 62 62 62 63 64 65 65 64 64 64 64 62 61 60 62 65 68 70 72 74 76 77 77 77 77 78 80 82 84 86 87 87 86
71 71 71 70 70 70 69 69 69 70 70 71 71 72 71 72 72 73 73 72 71 69 67 66 64 62 62 63 64 65 65 65 65 66 68 70 70 69 68 68 67 66 65 65 65 67 69 71 73 76 78 80 80 81 81 82 83 85 86 87 88 86 83
73 73 73 72 72 71 70 69 70 71 71 72 72 71 71 71 72 72 72 71 70 68 67 66 64 64 64 65 66 67 68 68 68 70 71 72 72 71 70 70 69 69 68 67 67 68 68 70 72 75 77 79 80 81 81 82 84 85 86 86 84 81 78
74 74 74 73 73 72 70 70 71 72 72 72 71 70 70 70 71 72 71 70 69 67 67 66 66 66 66 67 68 70 70 70 70 70 70 71 72 72 71 71 69 68 66 65 65 66 67 68 70 72 74 76 77 78 79 82 83 84 84 82 78 75 74
74 74 74 74 74 72 71 71 72 73 72 71 69 69 70 70 70 70 70 69 68 68 68 68 67 67 68 69 70 71 72 71 70 70 71 71 72 72 70 68 66 64 64 64 64 65 65 66 67 68 70 72 73 76 78 78 77 76 74 71 68 69 72
75 75 75 74 74 73 72 72 73 72 71 69 68 68 69 69 69 70 69 69 69 68 69 69 69 70 71 72 73 73 73 72 71 71 72 72 71 69 67 65 64 64 65 65 64 63 64 64 64 66 68 69 71 72 69 64 60 59 62 65 66 69 75
76 76 75 75 74 73 73 73 72 71 69 67 66 67 67 68 69 70 69 69 69 70 70 71 72 73 74 74 74 74 73 73 73 72 72 71 68 66 64 64 65 66 66 65 63 62 62 62 62 63 65 67 68 64 57 54 55 60 68 72 72 77 84
76 75 75 74 73 73 72 71 70 69 68 65 65 66 67 68 70 71 71 71 71 72 72 73 74 75 75 75 75 74 74 73 72 72 71 69 66 65 65 65 65 65 65 64 63 63 62 62 62 63 65 68 68 64 60 64 70 73 76 79 82 88 91
75 75 74 73 72 72 71 71 70 69 68 67 67 68 69 70 71 72 73 73 74 74 74 75 76 75 75 75 75 74 74 73 72 71 69 67 66 66 66 66 66 65 64 64 64 64 64 64 65 66 68 70 71 71 73 76 76 74 76 80 85 88 84
75 74 73 72 71 71 71 71 71 70 69 69 70 71 72 74 74 74 74 75 76 76 77 77 76 75 74 75 75 74 74 73 72 70 69 68 69 70 70 69 68 67 66 66 67 67 67 67 68 69 71 73 75 77 78 75 71 71 75 81 85 85 83
74 74 73 72 71 72 73 74 73 72 72 72 73 74 75 76 76 76 76 77 77 77 78 76 75 74 74 74 74 75 75 74 73 72 72 72 72 71 70 69 68 68 67 67 68 69 69 70 72 74 74 74 73 72 72 72 74 79 83 86 86 87 89
75 74 73 72 72 74 76 76 75 75 75 75 75 75 76 76 77 78 78 78 78 78 78 76 75 75 75 75 75 75 75 75 74 73 73 73 71 70 69 69 69 69 69 69 70 71 71 72 72 68 66 66 67 69 73 79 84 87 87 87 88 89 89
75 74 74 73 74 76 78 78 77 76 76 76 76 76 76 76 77 78 78 79 79 79 78 78 77 76 76 76 76 76 75 75 74 73 73 73 72 70 69 68 69 69 70 71 71 70 71 71 67 60 60 66 72 76 82 87 88 88 88 88 88 87 86
75 74 75 76 76 77 77 77 77 77 77 77 76 76 76 77 78 79 80 79 78 78 78 78 78 78 78 77 77 77 76 73 72 72 72 70 68 67 66 67 68 70 71 70 69 70 73 74 69 65 68 75 80 83 87 88 89 89 88 86 85 84 83
76 76 76 77 77 77 77 77 78 78 78 78 78 78 78 78 79 79 78 77 76 77 78 78 78 79 79 78 77 76 74 72 72 71 68 67 67 66 66 68 69 71 71 70 73 78 78 75 74 76 80 83 85 87 89 90 89 88 85 83 83 82 79
78 78 78 78 78 78 78 78 78 79 79 80 80 80 79 78 78 77 76 76 76 77 78 78 78 78 78 77 76 75 73 72 69 62 58 62 67 69 71 74 75 75 76 78 81 81 76 72 77 84 87 87 89 90 90 89 87 84 82 81 80 77 75
80 80 79 79 79 79 79 79 79 80 80 80 80 81 80 79 78 77 77 77 78 77 77 77 78 77 77 76 75 74 73 71 66 58 56 64 72 75 79 82 82 81 82 85 85 80 75 77 84 88 88 90 91 91 89 86 83 80 78 76 74 72 73

ECMWFFLT1_250_spd_030.txt.gz
Wind_Speed
24 23 23 23 22 22 21 22 22 22 23 23 24 25 26 27 27 28 28 28 28 29 30 30 30 31 32 32 32 32 33 34 35 35 36 36 36 37 37 38 38 38 39 39 39 39 39 40 41 40 39 38 36 35 34 34 34 36 37 40 43 43 43
27 26 26 26 25 25 24 24 24 25 25 26 26 26 27 28 29 30 30 30 30 31 31 32 32 33 33 33 33 34 35 35 36 36 37 37 37 38 38 38 39 39 39 39 39 39 40 41 41 40 39 38 37 36 36 37 39 41 41 43 44 43 42
29 28 28 28 28 27 27 27 26 27 28 28 28 28 29 30 31 32 32 32 32 32 33 34 34 34 35 35 35 35 36 37 37 37 38 38 39 39 39 39 39 40 39 39 40 40 41 42 42 41 41 41 40 39 40 41 43 44 44 45 45 43 42
31 30 31 31 31 30 29 28 28 29 29 30 30 31 31 32 33 33 34 34 34 34 35 35 36 36 36 36 36 36 37 38 38 39 39 40 40 40 40 41 41 41 42 42 42 42 43 43 43 43 43 42 42 42 42 44 44 45 46 46 44 43 43
34 33 33 34 34 33 31 30 30 31 31 32 32 33 34 34 35 35 35 36 36 36 37 37 37 38 38 38 38 39 39 39 40 41 40 41 41 41 42 43 43 44 45 45 45 46 46 45 44 44 43 42 41 42 43 44 45 45 47 46 44 43 44
36 36 35 35 35 34 33 32 33 34 34 34 35 35 36 37 37 37 37 37 37 38 38 39 39 39 39 40 40 41 41 42 42 43 42 42 43 44 45 45 46 47 47 47 47 48 48 46 45 45 43 41 40 41 42 43 44 45 46 45 43 43 43
39 39 38 37 36 36 35 35 35 36 36 37 37 38 38 39 39 39 39 39 39 40 40 41 41 41 41 41 42 42 43 44 45 44 44 44 45 47 48 48 48 49 49 49 49 50 49 48 47 46 44 43 42 43 43 43 44 43 43 44 45 44 44
42 41 40 39 38 38 37 37 37 38 39 39 40 40 41 41 41 40 40 41 41 41 42 42 43 43 43 43 43 44 45 46 46 46 46 47 48 50 51 51 50 50 50 50 49 49 49 49 51 49 46 44 44 46 47 46 44 42 43 45 46 46 47
44 44 43 41 40 40 39 39 39 39 40 41 42 43 43 43 43 42 42 42 43 43 43 44 44 44 44 45 45 46 47 48 48 48 49 50 52 53 52 51 51 52 52 51 51 51 51 53 54 52 47 44 45 48 50 50 47 43 43 46 47 48 51
47 46 45 44 42 42 41 41 41 41 41 43 44 45 45 45 45 44 44 45 45 45 45 46 46 46 46 46 47 48 49 49 50 50 52 53 55 55 53 53 54 53 53 52 53 52 51 52 52 50 47 45 45 48 51 51 47 43 45 48 49 51 54
48 48 47 46 45 43 43 43 43 43 43 44 45 46 47 46 46 46 47 47 47 47 47 48 49 48 48 49 49 50 50 51 52 53 54 56 57 57 57 57 57 54 53 52 51 50 48 49 50 49 47 45 44 45 48 49 47 47 50 51 51 54 55
50 49 48 47 46 46 45 46 46 45 45 46 47 48 48 48 48 48 49 50 50 50 50 50 51 51 51 51 51 52 52 54 54 55 56 57 58 59 60 59 58 56 53 51 50 48 47 49 50 49 48 46 44 45 47 48 50 52 53 53 54 55 53
52 52 50 49 49 49 49 49 48 47 48 48 49 50 50 50 49 50 51 52 52 52 52 52 53 53 53 53 53 53 54 56 57 57 58 58 59 61 60 59 58 57 54 52 51 50 50 51 51 49 48 47 46 48 49 50 52 52 52 54 57 58 56
53 54 53 52 52 52 51 51 50 49 50 50 51 52 52 51 52 52 53 53 53 54 54 54 55 55 55 55 55 55 56 57 58 59 58 58 60 62 60 58 57 56 55 53 52 51 52 52 51 49 49 50 51 50 48 48 50 51 53 56 60 61 62
55 55 55 55 55 54 53 52 51 51 51 52 54 54 53 53 54 54 55 55 56 56 56 57 57 57 56 56 57 57 58 58 59 59 59 58 59 61 60 57 56 56 55 54 53 53 53 53 52 51 51 52 53 51 49 49 50 52 55 58 60 62 63
58 57 56 57 57 56 55 54 52 53 54 55 56 55 55 55 56 57 57 57 58 58 59 59 59 59 58 58 59 59 59 59 59 59 59 58 58 58 57 56 56 55 54 54 55 55 55 55 56 56 56 56 56 56 56 55 55 55 58 60 61 62 63
60 59 58 58 58 57 56 55 54 54 56 57 57 57 58 58 59 59 59 60 61 61 61 61 61 61 60 60 60 61 61 61 60 60 60 58 57 56 55 54 55 55 55 56 56 58 59 59 60 60 60 59 59 60 60 60 59 59 61 62 63 64 66
63 61 61 60 60 59 58 57 56 56 58 59 58 59 60 61 62 62 62 62 63 63 63 63 63 63 62 62 62 63 63 62 60 60 60 58 57 56 54 55 55 55 56 57 59 60 62 62 63 63 61 61 61 61 61 61 62 61 63 66 68 71 73
65 63 62 62 62 61 60 59 58 58 59 60 60 61 62 64 65 65 65 65 65 65 65 64 65 65 64 64 64 64 64 62 60 60 59 59 57 56 56 57 57 58 58 59 61 62 63 64 65 63 60 60 61 61 62 61 61 62 65 68 71 74 76
67 65 64 64 64 63 62 61 60 59 60 61 62 63 64 65 67 68 68 68 68 67 66 66 67 67 67 66 65 64 64 62 61 59 59 58 57 56 57 58 59 60 61 62 63 64 64 64 62 59 59 60 61 63 63 60 60 63 66 68 71 73 76
69 68 67 66 66 65 64 63 62 61 61 63 64 65 66 67 68 69 70 71 70 69 69 69 70 70 69 67 66 65 64 63 61 60 59 58 58 58 59 60 61 62 63 64 65 65 64 61 58 59 63 65 65 65 62 60 62 65 66 68 70 72 74
72 70 69 68 68 67 67 66 63 62 63 65 66 67 68 69 70 70 71 72 71 71 71 72 72 72 71 69 67 66 65 63 61 60 59 58 59 59 60 61 62 63 64 65 66 66 66 63 62 63 64 64 64 63 61 63 65 66 67 68 70 71 72
74 73 72 71 70 69 69 68 65 65 66 67 67 69 70 71 71 71 71 72 72 73 74 74 74 73 72 71 69 67 65 64 62 61 60 60 61 62 62 63 65 66 66 67 67 67 65 64 66 67 65 63 63 62 64 66 67 67 68 69 69 69 70
77 76 74 73 72 71 71 69 68 68 69 69 70 71 72 72 72 72 72 72 73 74 74 74 75 75 73 71 69 68 66 64 63 62 62 62 63 64 65 66 67 68 69 69 69 68 66 65 67 68 66 64 64 64 66 67 66 67 67 67 68 68 68
79 78 76 74 73 72 71 71 71 71 72 71 72 72 73 73 73 73 73 73 73 74 74 75 75 75 73 71 69 68 67 65 64 64 64 65 65 66 68 69 70 71 71 70 69 69 69 68 69 68 66 65 65 65 66 65 64 65 66 66 68 69 69
80 78 76 75 74 73 72 73 73 74 74 73 73 74 74 73 73 73 74 74 74 74 74 75 75 74 73 71 70 68 67 67 66 66 66 67 67 68 70 71 72 72 71 70 70 70 70 70 69 67 66 65 65 65 64 63 64 65 67 69 71 72 72
80 78 77 76 75 74 74 74 75 75 75 74 74 75 75 74 74 74 74 74 74 74 74 75 75 74 72 71 70 69 68 68 68 68 68 68 70 71 72 72 72 71 71 71 71 70 70 70 68 66 66 67 67 66 64 64 65 67 70 73 74 73 72
80 79 78 77 77 76 75 75 76 76 76 75 75 76 75 75 75 75 75 75 74 74 74 74 74 73 72 71 70 69 68 68 68 69 70 71 72 72 72 73 72 72 71 71 70 71 70 69 67 67 68 67 65 64 63 63 64 67 71 70 68 66 66
81 79 79 79 78 76 76 76 77 77 77 76 76 76 76 76 76 76 76 75 74 74 73 73 73 73 72 71 70 70 69 69 69 70 72 72 73 72 72 73 73 72 72 71 71 72 71 69 69 68 67 64 63 62 62 62 64 67 67 63 60 60 62
80 79 79 78 78 77 77 77 78 78 77 77 76 77 76 76 76 76 76 75 74 73 73 73 73 73 73 73 72 72 71 71 71 72 73 73 73 73 73 73 73 72 72 72 72 72 71 70 68 66 63 62 62 62 62 63 64 66 66 63 62 62 63
79 78 78 78 78 78 78 78 78 78 77 76 76 76 77 77 76 76 75 74 73 73 72 73 73 73 74 74 75 74 73 73 73 73 73 74 74 74 74 74 73 73 73 73 73 72 71 69 66 63 61 61 61 63 65 67 68 71 72 71 70 68 68
79 78 78 78 78 78 77 77 78 77 76 75 74 74 76 77 77 76 75 74 73 73 73 74 74 75 75 76 76 75 74 75 75 74 74 75 75 75 75 74 75 75 75 74 73 72 70 67 63 61 61 63 65 68 70 72 74 73 71 67 66 66 68
79 78 78 78 77 76 75 75 76 76 74 72 71 72 74 76 77 75 74 74 74 74 74 74 75 76 76 76 76 76 76 76 76 75 75 75 75 75 76 76 77 77 75 74 73 69 65 63 63 64 66 69 72 73 74 74 72 68 63 59 59 61 67
78 78 78 77 76 75 75 74 75 74 72 71 71 72 75 76 75 74 73 74 74 74 75 75 76 76 77 77 78 78 78 77 77 76 76 76 76 76 77 78 78 77 75 74 70 64 61 62 65 68 70 73 75 75 76 74 71 68 64 62 63 67 75
78 78 78 77 76 76 76 75 75 74 73 72 73 74 75 75 74 74 75 75 75 75 76 76 77 77 78 78 78 78 78 78 78 78 77 77 77 78 78 78 78 77 74 71 66 63 62 63 66 68 71 74 75 76 77 79 78 75 70 68 71 77 84
78 78 78 77 77 77 77 77 76 76 75 74 75 75 76 75 76 76 76 76 76 77 77 77 78 79 79 79 79 79 79 79 79 79 79 78 78 78 78 78 76 74 71 67 64 63 62 63 67 71 74 76 78 80 84 85 84 80 76 75 78 82 85
78 78 77 78 78 78 78 79 78 78 77 77 77 77 77 77 78 78 78 78 78 78 79 79 80 80 80 80 80 80 80 80 80 79 79 78 78 78 78 78 75 71 67 65 63 63 64 69 74 77 79 82 86 88 88 86 81 78 76 76 77 81 86
78 78 77 78 78 79 79 79 79 79 79 79 79 79 79 79 80 80 80 80 80 80 80 81 81 81 81 81 80 80 80 79 79 78 78 79 79 78 77 74 70 66 66 66 65 63 64 69 75 79 83 87 88 85 80 75 73 73 73 75 80 87 91

ECMWFFLT1_250_spd_033.txt.gz
Wind_Speed
27 26 25 25 25 25 25 25 24 25 24 24 24 24 24 23 23 23 23 23 23 24 25 26 26 27 27 27 27 27 28 29 30 30 30 30 31 32 32 33 34 35 36 37 38 40 41 42 42 42 41 41 40 38 37 38 38 38 38 38 37 37 38
29 27 26 27 27 27 27 27 27 28 26 26 26 26 26 26 25 25 25 25 25 26 27 27 28 28 29 29 29 29 30 31 32 32 32 32 32 33 34 35 36 37 38 39 41 43 44 43 43 43 43 42 42 42 41 41 41 42 42 41 41 40 40
31 29 28 29 30 30 30 30 30 30 29 28 29 28 27 27 27 27 27 27 27 28 28 29 29 30 30 30 31 31 32 33 33 33 33 33 34 35 36 37 38 39 40 42 43 45 45 44 45 46 45 44 44 44 45 45 45 46 45 43 43 42 42
32 30 31 32 32 32 32 32 32 31 31 31 31 31 29 29 29 29 29 29 29 29 30 30 31 31 32 32 32 33 34 34 35 35 35 35 36 37 39 39 39 40 42 43 45 46 46 46 47 48 46 45 45 45 46 47 46 46 46 44 43 42 43
33 32 34 35 35 35 35 34 33 32 33 33 33 33 32 32 31 31 30 30 31 31 31 32 32 33 33 34 34 34 35 36 36 36 37 38 39 40 41 41 41 42 43 45 47 47 48 48 48 47 47 46 45 46 47 47 45 43 44 44 43 42 42
37 35 36 37 37 37 37 36 35 34 35 35 35 35 34 34 33 32 32 32 32 33 33 34 34 35 35 35 35 36 36 37 38 38 39 40 41 42 43 43 43 44 45 47 48 49 50 50 49 48 46 46 46 47 47 47 46 44 42 42 44 43 41
41 38 39 40 39 39 39 38 37 36 36 37 37 37 36 36 35 34 34 34 35 35 35 35 36 37 36 36 37 37 38 38 39 40 41 42 43 44 44 45 45 46 47 48 50 51 51 50 49 48 46 45 46 47 47 47 47 46 43 42 43 43 42
43 42 43 43 41 41 40 40 39 38 38 39 39 38 38 37 37 37 37 37 37 37 37 37 38 39 38 38 39 39 39 40 41 42 43 44 44 45 46 47 47 48 49 50 51 52 52 51 50 48 46 46 45 45 46 46 47 46 45 44 44 43 44
46 46 45 45 44 43 42 42 42 41 41 41 41 40 39 39 39 39 39 39 39 39 39 39 40 40 40 40 41 41 41 42 43 44 45 46 46 46 47 48 49 50 51 52 53 53 53 52 50 49 47 46 45 45 46 47 48 48 47 47 47 46 46
50 50 48 48 47 45 43 43 44 44 43 42 42 42 42 42 42 41 41 41 40 40 41 42 42 42 42 43 43 43 44 44 45 46 47 47 47 48 49 50 50 51 52 53 54 54 54 52 51 50 48 47 46 46 47 49 50 50 50 50 50 48 48
54 53 50 50 49 46 44 43 45 45 45 44 44 44 44 44 44 43 43 42 42 42 43 44 44 44 45 45 45 46 46 46 47 48 49 49 49 50 51 51 52 53 53 55 55 55 54 53 52 50 48 48 48 48 49 51 51 52 52 52 50 49 48
58 55 51 51 49 47 44 43 45 47 47 46 46 47 47 47 46 46 45 45 45 45 46 46 47 47 47 47 48 48 48 48 49 50 51 51 51 51 52 53 54 55 55 56 55 55 55 53 53 51 49 48 49 49 50 50 52 54 54 52 50 48 46
60 56 53 53 51 49 47 46 47 48 48 48 48 49 50 49 48 48 47 47 47 48 49 49 50 50 50 50 50 51 51 51 51 52 53 54 53 53 54 55 56 57 58 57 56 56 55 54 53 51 50 49 49 50 50 49 52 57 57 55 51 46 46
61 59 57 55 53 51 49 50 50 50 50 50 50 51 51 51 50 49 49 49 50 51 52 52 52 53 53 53 53 53 53 53 54 55 55 56 56 56 56 56 57 58 59 58 57 56 56 55 53 51 51 50 50 51 52 51 55 59 58 54 50 46 47
62 61 59 57 55 53 52 52 53 52 52 52 52 53 53 52 52 51 51 52 52 53 54 55 55 55 55 55 56 56 56 56 56 57 57 58 58 58 58 58 58 59 60 59 58 57 56 55 53 52 52 51 52 54 54 55 58 59 58 56 53 51 52
63 62 60 59 57 56 55 55 56 56 55 54 54 54 54 54 53 53 54 54 55 56 57 57 58 57 58 58 58 58 58 59 59 59 59 59 59 59 59 59 60 60 60 60 58 57 56 55 54 53 53 53 54 54 57 60 59 58 60 58 55 55 58
65 63 62 61 59 57 57 57 58 59 58 57 56 56 56 55 55 55 56 57 58 58 59 60 60 59 60 61 60 60 61 61 61 61 60 60 61 61 61 61 61 61 61 60 58 58 57 55 54 54 55 54 53 54 59 62 59 59 61 58 54 58 61
68 66 63 62 61 59 57 57 57 58 59 58 57 57 58 57 57 58 59 60 61 61 61 62 62 62 63 63 62 62 63 64 63 63 62 62 62 62 62 62 62 61 61 60 59 58 57 57 56 55 56 56 55 57 61 62 61 62 61 58 57 60 62
71 68 65 63 62 61 59 59 60 60 59 59 58 59 59 59 60 60 61 63 64 63 63 63 64 65 65 65 64 65 66 66 65 65 64 63 63 64 64 63 62 62 61 60 59 58 58 58 58 58 59 59 59 61 63 63 64 63 59 57 59 62 64
74 70 66 64 64 62 61 63 65 64 62 61 59 60 61 61 62 64 65 66 67 65 65 65 66 67 67 67 67 67 68 67 66 66 66 65 65 66 65 65 64 63 62 61 60 59 58 59 59 60 61 61 62 63 64 64 64 60 54 54 58 63 68
75 73 69 67 67 65 65 67 68 67 66 63 61 61 63 64 65 67 68 69 69 68 68 68 68 68 69 69 69 70 70 69 68 68 67 67 67 67 67 66 65 64 64 62 61 60 60 60 61 61 62 63 64 64 65 66 63 54 50 56 63 68 71
78 75 72 70 69 68 69 71 71 70 70 67 64 64 65 66 68 70 70 71 71 71 71 70 70 70 71 71 71 72 71 70 70 69 69 69 70 69 68 67 67 66 65 64 63 62 62 62 62 63 64 65 66 66 66 66 62 56 57 65 70 71 70
82 79 76 75 74 72 73 75 74 74 73 70 66 65 67 70 72 72 72 73 73 73 73 72 72 72 72 73 73 73 73 72 72 72 71 71 72 71 70 69 68 67 66 66 65 64 64 64 64 65 66 66 67 68 67 65 63 64 67 70 70 69 69
84 81 77 77 77 77 77 77 75 76 75 72 69 67 69 72 74 74 74 74 74 75 75 74 74 74 75 75 75 75 74 74 74 73 73 73 73 73 72 71 70 69 68 67 66 66 66 66 66 67 68 68 68 68 68 67 67 69 71 70 69 69 70
89 85 80 78 79 79 79 79 78 78 78 75 71 69 71 74 76 76 76 75 75 76 76 76 76 76 77 77 77 77 76 76 76 75 75 75 74 74 73 72 71 70 70 69 68 68 68 68 68 69 70 70 68 66 68 70 70 71 72 70 70 70 69
93 90 85 84 83 82 81 80 80 80 79 77 75 73 74 76 77 77 77 76 77 77 77 77 77 78 78 78 78 79 78 77 77 77 77 76 75 74 74 73 72 71 71 70 69 69 69 70 70 71 72 72 70 68 69 71 72 72 73 72 71 69 68
95 92 87 85 84 83 82 82 82 81 80 79 77 77 76 77 78 78 78 78 78 78 78 79 79 79 79 79 80 80 79 78 78 77 77 77 76 75 73 72 72 72 72 72 71 71 71 72 72 73 74 74 73 72 72 72 73 74 73 72 70 68 66
97 94 89 84 83 83 84 83 82 81 81 80 79 79 78 78 78 78 78 79 79 79 79 79 79 80 80 80 81 81 80 79 79 78 77 76 76 74 73 72 73 72 72 73 73 73 74 74 74 75 75 76 76 76 75 75 75 74 73 73 71 67 65
97 94 90 87 86 85 84 83 82 81 82 81 80 80 79 79 79 79 80 80 80 79 79 79 80 80 81 82 81 80 80 79 79 78 77 76 75 74 73 72 73 73 73 74 74 75 75 75 76 76 77 77 77 77 77 77 77 75 75 75 72 68 65
93 92 90 89 88 86 85 83 83 83 82 82 81 81 80 79 79 80 81 80 80 79 79 79 80 79 79 80 80 79 79 79 78 77 76 75 74 74 73 73 73 74 75 75 75 76 76 77 77 78 79 78 78 78 78 78 77 76 76 75 71 68 66
91 90 89 88 87 86 86 85 84 83 83 83 82 81 80 80 80 81 80 80 79 78 78 78 78 78 77 77 78 79 79 78 78 77 75 74 74 73 73 73 74 75 76 76 77 77 77 78 79 79 80 80 79 78 77 78 78 78 76 74 71 69 69
91 90 89 88 87 87 86 85 84 83 83 83 82 81 81 81 81 81 80 79 78 78 77 77 77 77 77 79 80 80 79 78 77 76 75 74 74 73 74 75 76 76 77 78 79 79 79 79 79 80 80 80 79 78 78 78 78 77 75 73 71 70 71
91 90 90 88 87 86 85 84 83 83 83 83 82 82 82 82 81 80 79 78 78 78 77 77 77 77 78 80 80 79 78 77 76 75 75 75 75 75 76 77 77 78 79 79 80 81 80 79 79 80 81 80 79 79 78 77 75 73 72 72 71 70 69
91 90 90 88 87 86 85 83 82 82 83 83 83 83 82 81 80 79 79 78 79 78 77 76 75 74 75 78 79 78 77 76 75 75 75 76 76 77 78 79 80 80 80 81 81 81 80 80 80 80 81 81 80 79 77 75 72 71 72 73 72 70 68
92 91 89 88 87 86 84 83 82 82 82 82 82 82 82 81 80 79 79 78 78 78 77 75 73 72 74 77 78 77 76 76 76 76 76 77 78 79 80 80 81 81 82 82 82 81 80 80 80 80 81 81 80 77 75 74 73 72 73 73 73 72 72
89 88 87 87 86 85 84 82 82 81 81 82 82 81 81 81 80 79 79 78 77 77 77 76 75 74 76 77 77 76 76 77 77 77 77 78 79 80 81 81 81 82 82 82 81 81 80 80 80 80 81 80 79 78 79 79 78 76 76 76 76 76 77
83 83 84 84 84 83 83 82 81 81 81 81 81 81 81 81 80 79 79 78 78 78 77 76 76 76 77 77 76 77 77 77 78 78 79 79 80 80 81 81 81 81 80 80 80 80 79 79 79 79 80 80 80 81 81 80 78 75 74 75 77 77 78
78 78 79 81 82 82 81 81 81 81 80 79 80 80 80 79 79 79 79 78 77 77 77 76 76 77 77 76 76 77 78 78 79 79 79 79 79 80 80 80 79 78 78 79 79 79 78 79 78 78 79 80 80 80 79 77 74 71 70 74 77 80 82

ECMWFFLT1_250_spd_036.txt.gz
Wind_Speed
27 29 28 28 28 26 25 24 24 23 21 20 21 23 24 24 23 22 22 23 24 25 25 25 25 25 25 25 24 25 25 25 25 26 27 27 28 29 30 31 32 32 33 34 35 36 37 38 39 40 41 42 42 42 42 41 40 39 37 36 36 35 35
30 31 30 30 30 28 26 26 26 25 24 22 22 24 26 26 25 24 25 25 26 26 26 27 27 27 27 27 26 26 26 26 27 28 28 29 29 30 32 33 34 34 35 35 36 38 39 40 41 42 43 44 45 44 44 43 41 40 39 37 36 36 37
31 32 32 30 29 29 28 29 29 28 27 25 25 26 28 28 27 27 27 27 27 28 28 29 29 29 29 28 28 27 28 28 29 30 30 31 31 32 33 34 35 36 36 37 38 39 41 42 43 45 46 47 46 46 45 45 43 41 40 39 38 38 39
34 34 33 31 30 29 31 32 32 32 31 29 28 29 30 30 29 29 28 28 29 30 30 30 30 31 30 29 30 29 29 30 31 32 32 33 33 34 35 35 37 37 38 39 40 41 42 43 45 46 48 49 48 47 46 46 44 42 41 41 41 41 41
36 36 35 34 32 31 33 35 35 35 35 33 32 31 32 32 31 31 30 30 31 31 31 32 32 32 31 31 32 31 31 32 33 34 34 34 35 35 36 37 38 39 39 40 41 43 44 45 46 48 49 50 50 49 48 47 45 43 42 42 42 43 44
37 39 38 36 34 33 35 37 36 37 37 35 34 33 34 34 33 33 32 32 33 33 33 34 34 34 33 33 34 33 34 35 35 35 36 36 37 37 37 38 39 40 41 42 43 44 45 46 48 49 50 51 51 50 49 48 47 46 44 43 44 45 45
40 42 41 38 36 35 36 37 37 37 37 36 36 35 36 36 35 34 34 34 34 34 35 35 35 36 36 36 36 36 37 38 38 37 38 38 39 39 39 40 40 41 42 43 44 46 47 48 49 50 51 52 52 51 50 49 48 48 47 46 46 46 45
42 44 44 40 38 38 38 39 39 37 38 38 38 38 37 37 36 36 35 35 36 36 37 37 38 38 38 38 38 38 40 40 40 40 40 41 41 41 41 41 42 42 44 45 46 47 48 49 50 52 52 53 53 52 51 50 49 49 49 49 48 47 46
44 46 47 43 41 40 41 41 40 39 39 40 41 40 39 38 38 38 37 37 38 38 39 39 40 40 40 40 41 42 43 43 42 42 42 43 43 43 43 44 44 44 45 47 48 49 49 50 51 53 53 54 54 53 52 51 50 49 49 49 50 49 47
47 47 49 47 43 43 43 42 41 41 42 42 43 42 42 41 41 41 40 40 40 40 41 42 43 43 42 43 44 45 46 45 45 45 44 45 45 45 45 46 46 46 46 48 50 51 51 52 53 54 55 55 55 55 54 53 52 51 50 50 52 51 49
52 48 50 51 46 45 47 45 44 45 45 45 45 44 44 44 44 43 43 42 42 43 43 44 45 45 45 46 47 48 48 48 48 47 47 47 47 47 48 48 48 48 48 49 50 52 53 54 54 55 55 56 56 56 55 54 53 52 51 52 53 53 51
57 51 52 54 49 47 49 48 47 47 47 48 47 47 47 47 46 47 46 44 44 45 45 46 47 48 48 48 50 51 51 50 50 49 49 49 49 50 49 50 50 51 51 51 51 52 54 56 56 57 57 56 57 57 56 55 54 53 52 53 54 54 52
60 54 54 55 53 50 50 49 49 49 49 50 50 50 50 49 49 49 47 47 47 47 48 48 49 50 51 51 52 53 53 53 52 52 51 51 52 52 51 51 52 53 53 53 53 54 55 57 58 59 59 58 58 58 57 56 54 54 54 54 54 54 52
61 57 57 59 56 53 53 52 51 51 52 52 53 53 53 52 51 51 50 50 49 50 50 50 51 53 54 54 55 56 56 55 54 53 53 54 54 54 54 54 54 54 55 56 56 56 57 59 60 60 60 60 60 59 59 57 56 55 54 53 53 55 54
63 62 61 63 61 59 57 55 53 54 54 54 55 55 54 54 54 53 53 53 52 52 52 53 54 56 57 56 57 58 58 57 56 56 56 56 56 56 56 56 56 56 57 57 58 59 59 60 62 62 62 61 61 60 60 59 57 56 54 53 53 56 58
64 64 63 65 65 62 59 57 57 58 57 56 56 56 56 56 56 56 56 55 55 54 54 56 58 59 60 60 59 59 59 59 58 58 59 59 59 59 58 58 58 58 58 58 59 60 60 61 62 64 64 63 62 61 61 60 58 57 56 55 56 59 60
67 67 65 66 66 63 60 60 60 60 59 58 58 58 57 57 58 58 58 57 57 56 57 60 61 61 62 62 61 61 61 61 60 60 61 61 61 61 61 61 61 61 60 60 61 61 62 61 62 63 64 64 63 61 61 61 59 58 54 53 57 61 62
70 70 70 71 70 66 62 61 61 61 61 60 58 58 59 59 59 59 59 59 59 58 60 62 64 64 63 63 63 63 63 62 62 62 63 63 63 63 63 63 63 63 63 62 62 63 63 63 63 63 63 64 64 63 62 61 61 60 55 52 56 62 63
73 74 73 73 73 70 68 66 65 64 63 61 59 60 61 60 60 60 61 62 61 61 63 64 64 63 63 63 63 64 65 64 64 64 65 65 65 65 65 65 66 66 66 65 64 65 65 64 64 64 64 64 65 64 62 62 63 62 60 58 59 63 65
76 76 75 74 74 74 73 72 70 68 66 64 63 63 63 61 60 61 63 64 64 65 66 66 66 64 63 63 63 64 66 66 66 67 67 67 67 67 67 67 68 68 68 67 66 66 67 67 66 66 65 64 65 65 63 63 64 64 63 63 63 65 67
78 78 77 76 78 78 76 75 73 71 70 68 66 66 66 64 64 65 66 66 67 68 69 70 69 68 66 65 64 65 67 69 69 69 69 69 70 69 69 70 70 70 69 69 68 68 68 69 68 68 67 66 65 65 64 64 65 65 65 65 66 67 66
80 81 80 80 82 82 78 76 76 75 72 69 68 68 68 68 68 68 69 69 70 72 72 73 72 71 69 67 66 67 69 70 71 71 71 71 72 72 72 72 73 72 71 70 70 69 70 70 70 70 69 68 66 65 65 65 66 67 67 68 68 69 67
83 84 84 83 84 85 82 78 77 78 74 70 69 70 70 70 69 70 71 71 73 75 75 75 74 73 71 70 69 69 70 71 73 73 73 73 74 75 75 75 75 75 74 72 71 71 71 71 70 70 70 69 68 67 66 66 67 68 70 70 71 71 70
88 87 87 86 86 87 85 79 77 78 77 74 73 73 72 71 71 72 72 72 75 78 78 77 75 74 74 73 72 71 71 72 73 74 75 75 77 78 78 78 78 77 75 74 73 72 72 72 71 70 70 70 69 69 68 68 69 71 72 72 72 72 72
91 90 89 88 88 90 86 78 76 80 81 78 76 75 74 73 73 73 73 74 77 80 79 78 76 76 76 75 74 74 74 74 74 75 77 78 79 80 81 81 80 78 77 76 75 74 74 73 71 71 71 70 70 69 70 70 71 73 74 75 74 74 74
93 93 91 90 92 92 85 78 79 83 82 80 79 77 76 75 74 74 74 75 79 82 81 80 78 77 77 77 77 77 76 76 76 77 78 80 81 83 83 82 81 80 79 77 76 76 74 73 72 71 71 70 70 71 72 73 73 73 75 77 76 76 76
94 94 92 92 93 90 83 79 81 82 81 81 81 79 77 75 75 75 76 77 80 82 82 80 79 79 79 79 79 79 79 78 78 79 80 81 82 82 82 82 81 80 79 78 77 76 75 73 72 71 71 71 72 73 74 75 75 75 76 78 78 78 78
93 93 93 93 91 86 83 83 83 81 78 77 78 79 77 76 77 77 76 75 76 78 79 79 79 80 80 80 80 80 80 80 79 80 81 81 82 82 82 82 81 80 79 79 78 77 75 72 71 72 73 73 73 74 75 76 77 77 77 79 80 80 79
90 91 94 94 90 86 86 88 88 86 81 77 77 78 77 77 79 79 78 77 77 79 81 82 83 82 82 82 82 82 81 80 80 81 81 80 81 82 82 82 82 81 80 79 78 76 74 72 72 74 75 74 74 74 75 76 77 78 79 81 81 81 80
88 89 91 92 90 89 90 91 91 91 88 83 82 81 79 79 80 81 80 80 81 82 84 83 83 82 82 83 83 82 81 81 80 80 81 81 81 81 81 82 82 81 80 79 78 75 73 73 74 76 76 76 75 75 75 77 78 79 81 82 82 81 80
87 87 88 89 90 90 90 91 91 92 90 88 88 87 85 84 84 83 82 83 83 82 82 82 83 83 84 83 83 82 81 81 81 80 80 80 80 80 80 80 80 80 80 79 76 74 73 75 76 77 77 76 76 77 77 77 79 80 81 81 81 81 81
79 81 82 83 85 88 90 91 93 94 94 93 92 92 91 90 88 87 86 86 86 85 84 84 85 85 85 85 83 82 82 81 81 80 79 79 79 80 79 79 80 81 80 77 74 73 74 76 77 77 77 77 77 78 77 78 79 80 80 80 81 81 81
67 66 67 68 71 78 86 90 94 97 98 98 97 95 94 93 91 89 88 87 86 86 86 87 87 86 86 85 83 82 81 81 80 80 79 79 80 80 79 78 79 80 78 75 73 74 75 77 77 77 77 77 77 78 78 78 78 79 79 80 80 79 79
54 52 53 55 58 66 74 79 84 90 93 96 99 98 97 95 92 90 88 87 87 87 87 86 86 85 84 83 82 81 81 80 80 80 80 80 80 79 78 77 77 77 76 74 74 76 77 77 76 76 77 77 77 77 77 77 78 79 80 78 76 76 77
44 46 50 53 54 59 64 66 72 78 81 86 92 95 94 93 91 89 88 87 85 84 83 83 84 84 83 82 82 81 80 81 80 80 80 79 79 78 76 75 75 75 75 75 76 77 78 77 75 75 76 76 76 76 76 78 79 79 75 73 73 75 78
37 41 47 50 52 56 62 66 70 74 76 79 82 84 85 85 85 84 85 86 85 83 83 83 84 84 83 82 81 80 81 82 81 79 78 77 76 75 75 74 74 75 76 77 77 77 76 75 75 75 75 75 75 74 75 76 73 68 67 72 77 79 79
32 38 45 50 54 60 67 71 72 73 73 72 72 73 75 78 79 80 82 83 84 83 83 83 84 83 82 82 81 81 81 81 79 76 76 75 75 75 75 75 75 76 76 76 76 75 75 75 74 74 74 74 74 72 71 69 66 67 75 81 81 80 79
37 44 52 58 63 66 70 72 70 70 70 68 66 67 69 73 75 77 79 81 82 83 83 83 83 82 81 81 80 79 79 78 76 75 75 75 76 76 76 76 76 75 75 74 74 74 75 74 74 73 71 72 72 71 69 68 70 75 80 79 78 79 79

ECMWFFLT1_250_spd_042.txt.gz
Wind_Speed
28 29 28 27 27 25 23 21 20 20 21 21 21 20 20 20 19 19 18 18 17 17 17 17 17 16 15 16 17 17 17 18 19 21 21 21 21 21 22 23 23 24 25 26 27 28 29 30 30 32 33 35 36 37 38 38 38 38 39 39 40 41 42
30 30 29 30 28 26 25 23 22 23 23 23 23 22 22 21 21 21 21 20 20 19 19 18 18 18 19 19 19 18 18 19 20 21 22 23 23 23 24 24 25 26 27 28 29 30 30 31 32 33 34 35 37 39 40 40 40 40 40 40 41 42 43
31 31 31 31 30 28 26 26 25 25 25 25 25 24 23 23 23 24 23 23 23 21 20 19 19 21 22 22 21 20 20 20 21 22 24 24 25 25 26 26 27 28 29 30 31 31 32 33 34 34 35 36 38 39 41 42 42 42 42 42 42 42 43
34 33 33 32 32 30 28 27 27 27 27 26 26 25 24 25 26 26 26 26 25 24 22 21 21 23 24 24 23 23 22 22 22 23 24 26 27 27 28 29 29 29 31 32 33 33 34 34 35 36 37 38 39 40 42 43 44 44 44 43 43 43 44
37 36 35 34 33 32 30 29 28 29 29 28 27 26 26 27 28 28 28 28 28 26 25 24 24 25 25 25 26 26 25 24 23 24 25 27 28 30 31 31 31 31 33 34 35 35 35 36 36 37 38 39 40 41 43 44 45 45 45 45 45 44 45
40 39 37 35 35 34 32 30 30 31 30 30 28 28 29 30 30 30 29 29 29 28 28 28 27 27 27 27 28 28 27 26 25 25 27 28 30 32 33 34 34 34 34 36 37 37 37 38 38 39 39 41 41 43 44 45 46 46 47 47 46 46 46
42 41 40 39 38 36 35 33 32 32 32 30 30 30 32 32 31 31 31 31 30 30 30 30 30 30 30 30 30 30 29 28 27 27 28 30 32 33 34 36 36 36 36 38 39 39 40 40 40 41 41 42 43 44 45 46 47 47 47 48 48 48 48
44 43 42 42 41 40 39 37 35 34 33 32 32 34 34 33 33 33 32 32 32 32 32 32 32 32 32 32 32 32 31 30 30 29 30 31 33 35 36 37 38 38 38 39 41 42 42 42 43 43 44 44 44 44 45 47 48 48 48 48 48 49 49
47 46 45 44 44 43 42 41 39 36 34 34 35 37 36 36 36 35 34 33 34 34 34 34 34 34 34 34 34 35 35 34 33 33 33 34 35 37 38 39 40 40 40 41 42 43 44 44 46 46 45 45 44 44 45 47 49 49 50 49 49 50 51
50 49 49 49 47 45 44 43 42 40 38 38 38 39 39 39 38 37 37 36 36 36 36 36 36 36 36 36 36 37 37 37 37 37 37 37 38 39 40 40 41 42 42 43 44 45 45 46 47 47 46 44 45 46 47 49 50 51 52 52 51 52 53
54 53 53 52 50 47 45 44 44 44 43 42 42 43 42 42 41 41 40 39 38 38 39 38 38 38 38 38 38 38 39 39 39 40 40 40 41 41 41 42 43 44 45 46 46 47 47 47 48 48 47 46 48 49 49 51 52 52 53 54 54 54 55
56 55 55 55 53 50 48 47 47 47 47 47 46 45 45 44 44 44 43 42 41 41 40 40 40 40 40 40 41 40 40 40 41 42 43 43 43 43 43 43 44 46 47 47 48 48 49 49 50 50 50 50 51 51 51 53 53 53 53 55 56 57 57
58 57 58 58 55 53 51 49 50 50 50 50 49 47 47 47 47 46 46 45 44 43 43 42 42 43 42 43 43 43 43 43 43 44 45 45 45 44 44 45 46 47 48 49 50 50 50 51 52 52 53 53 52 52 53 54 55 55 54 55 57 58 58
61 60 60 60 58 56 54 52 52 51 51 51 50 48 48 48 48 47 47 47 47 46 45 44 44 45 45 45 45 46 46 45 45 46 47 47 46 46 46 47 48 49 51 51 52 51 51 52 54 54 55 55 55 54 55 56 57 57 56 56 58 59 60
63 63 63 62 61 60 58 56 55 54 53 53 52 50 50 49 49 48 48 49 49 48 47 46 45 47 47 47 47 48 48 47 47 48 48 48 48 48 48 48 49 51 52 53 53 52 51 54 56 56 56 57 57 57 58 59 59 59 58 58 60 61 61
68 68 67 66 64 63 61 60 57 56 55 54 54 53 52 51 51 51 50 50 49 48 48 48 47 48 49 49 49 49 49 49 49 50 50 50 50 49 49 50 51 52 52 53 53 52 54 57 58 57 58 59 59 60 60 61 62 60 60 61 62 62 62
72 72 70 68 67 65 65 63 61 59 58 56 56 57 56 55 55 54 53 51 50 51 51 50 49 49 50 51 51 50 49 50 51 52 53 52 51 51 50 51 51 52 53 53 53 54 57 59 59 59 59 60 61 62 62 63 63 61 61 63 63 62 63
75 74 72 70 70 69 68 66 64 62 61 60 59 59 59 58 57 57 56 54 53 54 53 51 51 51 52 52 52 51 51 52 53 54 53 52 51 51 50 51 52 54 55 56 56 57 59 60 60 60 61 62 63 64 64 65 63 61 63 65 64 64 65
78 76 74 73 73 72 71 70 68 67 66 65 63 61 62 61 59 58 59 58 57 56 55 54 53 53 54 54 53 54 55 55 55 55 54 53 53 52 52 54 56 57 59 59 60 60 60 61 61 62 63 64 65 65 66 65 63 62 65 67 65 65 66
81 80 78 76 76 75 73 72 72 71 69 68 66 65 64 63 61 61 62 62 61 59 57 57 57 56 56 55 56 57 56 56 56 57 56 56 57 56 57 59 60 61 62 62 62 62 62 62 63 64 65 66 66 67 67 66 65 66 68 68 67 67 68
77 80 80 80 79 78 76 74 73 73 72 72 71 70 68 65 64 64 64 64 64 63 61 61 60 59 58 58 59 59 59 58 59 60 60 61 61 61 62 63 63 64 64 64 64 64 64 64 65 66 67 68 68 68 68 68 68 69 70 70 69 69 70
69 73 77 81 83 82 79 77 75 75 75 76 75 73 71 69 68 68 67 66 67 66 65 64 63 62 61 61 61 62 62 62 63 63 64 64 64 65 65 66 66 66 67 66 66 66 66 66 66 67 69 70 70 70 70 71 71 71 71 71 71 71 71
62 65 69 76 81 83 82 80 78 78 78 79 78 75 74 74 73 72 71 69 68 69 68 67 66 65 64 64 65 65 66 66 66 67 68 68 68 69 69 69 69 70 69 68 69 69 69 68 67 68 70 72 72 71 72 72 72 72 72 72 73 73 73
57 60 63 67 72 77 80 81 81 81 80 80 79 77 76 76 76 76 74 72 71 71 70 68 67 67 68 68 68 69 69 69 70 71 71 71 72 72 72 73 73 73 72 71 71 72 71 69 68 70 72 73 73 72 72 71 72 73 73 74 74 74 74
54 55 57 60 64 69 74 78 81 82 83 82 80 80 79 79 79 78 77 75 74 73 71 70 70 70 71 71 71 72 73 73 73 74 75 75 74 75 75 76 76 75 74 73 73 74 72 70 70 72 74 74 73 72 70 71 73 74 74 74 75 74 74
55 54 54 56 59 62 66 71 75 80 83 84 84 84 85 84 84 81 79 78 77 75 73 72 72 73 74 74 74 75 77 77 76 76 77 77 77 77 78 79 79 78 77 76 75 75 72 70 70 72 72 73 73 71 70 71 74 75 74 74 74 73 72
56 55 55 56 56 58 61 64 68 73 78 81 84 86 87 87 87 85 82 81 80 78 75 74 74 76 77 78 78 79 80 79 78 78 79 80 80 80 82 82 82 81 80 79 77 76 74 72 71 70 70 71 72 72 72 74 75 75 73 73 72 72 71
56 55 56 56 57 57 58 59 61 66 71 75 78 82 84 86 86 85 85 84 83 81 79 77 78 79 80 81 82 81 80 80 80 80 80 81 83 84 85 85 84 84 82 81 79 77 75 73 71 70 69 71 72 74 75 75 75 74 73 72 72 71 70
56 56 55 56 57 57 58 58 58 61 64 68 70 73 76 80 82 83 85 85 84 83 82 81 81 82 84 85 83 81 80 81 82 82 83 84 86 87 88 88 87 86 85 83 81 79 76 74 71 70 71 72 74 75 75 75 74 74 73 72 71 69 68
56 55 55 56 58 58 58 59 59 59 60 61 62 64 67 70 74 76 79 82 83 83 83 83 84 85 87 85 82 80 80 81 82 84 86 87 89 90 91 91 89 88 86 85 83 80 78 75 72 71 73 74 74 74 74 74 73 73 72 71 70 68 66
55 55 55 56 57 57 57 58 59 59 58 57 57 58 59 62 65 68 71 74 76 78 79 81 84 85 85 83 82 81 81 80 83 86 89 91 92 93 93 93 91 89 87 86 84 82 79 75 73 73 74 74 73 73 73 72 71 72 71 70 68 67 65
55 55 55 55 55 55 54 55 56 57 57 55 54 54 54 56 59 62 65 67 69 71 73 76 80 80 79 79 78 78 78 78 79 83 89 93 95 96 97 95 91 89 87 86 85 82 78 75 73 73 74 73 72 73 72 71 70 71 71 69 67 66 64
55 55 55 54 53 53 52 53 53 53 54 55 54 53 53 54 55 57 59 62 64 65 67 71 72 70 68 69 70 71 73 77 79 81 86 91 94 95 97 96 92 90 87 85 84 80 75 74 74 74 74 74 73 71 69 68 69 69 68 66 65 63 62
56 55 55 55 54 53 52 52 52 51 52 53 52 52 52 53 53 53 53 55 57 59 61 64 63 59 56 56 58 62 67 76 82 85 86 88 90 91 91 89 86 83 81 78 77 76 73 73 73 73 73 72 69 66 65 66 67 66 65 63 62 62 63
56 56 56 56 55 54 53 53 53 52 51 50 50 50 51 51 51 50 48 48 49 50 52 52 50 48 46 45 47 51 57 66 79 87 89 91 90 87 82 76 72 71 70 69 69 69 69 69 69 68 67 64 62 61 63 64 64 62 61 61 61 62 63
56 56 56 56 55 54 53 54 53 52 51 49 48 48 48 48 47 45 43 41 40 39 40 39 36 33 32 34 38 42 48 56 66 75 83 87 86 81 76 71 66 63 61 60 60 61 61 61 60 60 59 58 59 60 61 60 59 59 59 60 61 62 63
54 55 55 55 55 53 53 54 53 52 51 49 47 46 47 46 43 40 38 36 34 30 25 20 19 23 28 31 35 39 47 54 58 63 73 79 78 73 70 66 61 58 55 54 55 55 55 54 54 55 56 57 57 57 57 56 56 57 59 61 62 62 60
52 54 55 55 54 54 53 53 52 51 49 48 47 47 45 42 39 37 37 36 32 28 23 16 19 40 52 52 45 40 45 53 59 67 76 78 73 66 60 57 56 56 55 54 53 53 52 52 53 54 55 54 54 54 55 56 57 59 61 63 62 60 59

ECMWFFLT1_250_spd_045.txt.gz
Wind_Speed
28 28 27 26 26 26 26 25 23 22 22 22 22 22 22 22 22 21 19 18 18 18 19 19 19 18 17 16 16 16 16 16 15 15 15 15 14 13 13 15 17 18 19 20 22 23 24 25 26 27 28 29 30 31 32 33 33 33 33 33 34 35 36
30 29 28 27 27 28 27 26 24 22 23 25 24 24 24 24 23 21 20 19 20 20 20 20 20 19 18 18 19 18 17 17 17 18 18 18 17 16 15 16 18 19 20 22 23 24 25 27 27 28 30 31 32 33 34 35 34 34 33 33 35 36 37
32 30 30 29 29 30 29 27 25 24 25 27 27 26 26 25 23 22 22 22 22 22 22 21 21 20 20 21 21 20 19 18 19 19 20 20 20 20 18 18 19 20 21 23 24 26 27 28 29 30 32 33 33 34 36 36 35 34 34 35 37 38 39
33 32 32 31 31 31 30 29 28 27 28 29 28 28 27 25 25 25 25 24 24 23 23 23 22 23 23 23 22 22 21 21 21 20 21 22 22 22 21 20 21 22 23 24 26 27 28 29 30 31 33 34 35 36 37 37 36 36 36 38 39 40 41
35 35 34 33 34 33 32 32 31 30 30 30 30 30 28 27 27 28 27 27 26 25 24 24 25 25 25 24 24 24 23 23 23 22 22 23 24 24 24 23 24 24 24 25 27 28 29 30 31 32 34 36 36 37 37 38 38 38 39 40 41 41 42
39 38 37 36 35 35 34 34 33 32 32 32 32 32 31 30 30 30 29 28 27 27 26 26 27 27 27 26 26 25 26 26 26 25 25 25 26 26 26 27 27 27 27 28 29 30 31 32 32 33 35 37 38 38 38 39 39 40 40 42 43 43 44
43 42 40 38 37 36 36 35 34 34 34 34 33 33 33 33 32 31 30 29 28 28 28 27 28 28 29 29 28 28 28 28 29 29 28 28 28 29 29 30 31 31 31 30 31 32 33 34 34 35 36 38 39 40 40 39 40 41 42 43 44 45 46
46 44 43 41 40 39 38 36 35 35 35 34 34 34 35 35 33 32 31 30 29 29 29 28 28 29 29 30 30 30 30 30 31 31 30 31 31 31 32 33 34 34 33 33 33 34 35 35 36 36 38 39 40 42 42 41 41 42 44 45 46 47 48
47 45 45 44 43 42 41 39 37 37 36 35 36 37 37 36 35 34 33 32 31 31 31 29 29 30 30 31 32 32 32 32 32 32 32 32 33 33 34 35 36 36 35 35 35 36 36 37 37 37 39 41 42 43 43 41 42 44 46 47 48 49 49
49 47 47 47 46 45 43 42 41 39 39 38 39 39 38 37 37 36 34 34 34 33 32 31 31 31 32 32 33 33 33 33 33 33 34 34 34 35 35 37 37 37 36 37 37 38 38 38 38 38 40 41 43 43 43 42 43 46 47 48 50 51 51
52 51 50 49 48 47 46 45 44 43 42 42 42 41 40 39 39 37 36 36 36 35 33 33 33 33 33 34 34 34 35 35 35 36 36 36 37 37 37 38 38 38 38 38 39 39 40 40 40 40 41 42 43 43 44 43 44 47 48 50 51 52 53
55 54 53 52 50 50 49 48 46 46 46 45 45 44 43 42 41 40 39 38 38 37 36 35 35 36 36 37 37 37 37 37 38 38 38 38 39 39 39 40 40 40 40 40 41 41 42 42 42 42 42 42 43 44 45 45 46 48 49 50 52 54 55
58 57 56 56 54 54 53 50 49 49 48 48 47 46 46 44 44 43 42 42 41 40 39 39 38 39 40 40 40 40 40 40 40 40 40 41 41 41 42 42 42 41 41 42 43 44 44 44 44 43 43 44 44 46 47 48 48 49 49 50 52 54 56
61 60 59 59 57 57 57 54 52 51 50 50 49 48 47 46 46 46 45 45 44 43 42 42 42 43 43 43 44 44 43 42 42 43 43 43 44 44 45 44 44 44 43 43 44 46 46 45 45 45 45 45 46 48 49 50 50 51 51 51 53 55 57
65 64 63 62 60 59 60 59 56 55 53 52 51 50 49 49 48 48 48 48 47 46 46 45 45 45 46 46 47 46 46 45 45 45 46 46 46 46 47 46 46 45 44 45 47 48 47 46 46 46 46 47 49 51 52 52 53 53 53 53 54 56 57
67 68 67 65 63 63 63 63 61 58 56 55 53 52 52 52 52 51 51 51 50 49 48 47 47 48 49 49 49 48 47 47 47 47 48 48 49 49 48 47 46 46 46 48 50 49 49 48 48 49 50 51 52 54 54 55 55 55 55 56 56 57 59
70 70 69 68 68 68 67 66 64 61 60 58 57 56 55 55 55 55 54 54 52 52 51 50 50 50 50 51 50 48 48 49 49 49 50 50 50 50 50 48 48 48 49 51 53 52 52 51 52 53 54 54 55 56 57 57 57 58 58 58 59 60 61
69 71 71 71 72 71 69 68 66 64 62 62 61 61 60 59 58 57 57 57 56 56 54 52 53 53 53 53 52 51 51 51 51 52 52 53 52 52 51 50 50 51 53 54 55 56 55 54 56 57 57 57 58 58 59 60 60 60 60 61 61 61 62
59 67 71 72 73 72 71 70 69 67 66 66 65 64 65 64 62 61 60 60 59 58 56 55 56 56 56 56 55 54 54 54 53 54 54 55 55 54 53 52 53 54 56 58 58 58 58 58 59 59 59 60 61 61 61 62 62 62 63 63 63 62 63
47 55 63 69 73 73 73 72 72 72 70 69 69 69 69 67 66 65 64 63 62 60 59 59 60 60 59 58 57 57 57 56 56 56 57 57 57 56 55 55 56 58 59 61 62 62 62 62 62 62 62 63 64 64 64 64 64 65 65 65 64 63 63
42 46 52 59 66 70 73 74 75 75 74 72 72 72 72 70 69 70 69 67 65 63 63 64 63 62 62 61 60 59 59 59 59 59 60 60 59 58 58 58 60 62 63 65 65 65 65 65 65 65 65 66 66 66 66 66 66 67 67 66 66 64 63
41 42 46 51 55 60 66 71 75 77 77 76 76 75 74 73 73 74 75 72 70 68 68 68 67 65 64 64 63 63 62 63 63 63 63 62 61 61 61 62 64 66 67 68 68 67 67 67 68 68 69 69 68 68 68 68 68 69 68 68 66 65 64
42 42 44 47 49 53 58 63 69 74 76 78 79 77 76 76 76 77 78 77 74 73 73 72 70 69 68 67 67 67 67 67 67 67 66 65 65 64 64 66 68 69 70 70 70 69 69 70 70 71 71 71 70 70 70 70 70 70 70 69 67 65 65
44 43 44 46 47 49 52 55 60 66 70 75 78 78 78 79 79 79 79 78 76 76 76 75 73 73 72 71 71 72 72 72 71 70 69 68 68 67 67 69 71 72 73 73 72 72 72 72 72 73 73 73 73 73 72 71 71 71 71 70 68 65 65
44 44 45 45 47 48 49 51 53 56 61 66 70 75 78 80 81 81 81 79 78 78 78 76 75 76 76 76 77 77 76 76 75 73 72 71 71 71 71 72 74 75 75 75 75 75 75 74 74 75 76 76 76 75 74 73 72 73 73 71 68 66 66
46 46 46 46 46 46 47 48 49 51 54 57 62 67 72 76 80 82 81 82 82 80 78 77 78 79 79 80 81 81 80 79 78 77 75 74 74 74 74 76 77 77 77 77 77 77 77 77 76 77 79 80 79 78 76 74 74 74 74 71 68 67 66
49 48 48 47 46 46 46 47 48 49 51 53 56 59 63 68 72 76 79 81 82 81 80 80 81 82 82 82 83 83 83 83 81 80 79 78 77 77 77 78 78 79 79 80 79 79 79 79 79 80 82 83 82 81 78 76 76 76 74 71 69 69 68
51 50 49 49 48 47 47 47 49 50 51 51 52 55 58 61 63 67 71 74 77 79 80 82 83 84 84 84 84 85 86 86 85 83 82 82 82 81 81 82 81 80 81 81 81 81 80 81 81 82 84 85 85 84 81 79 77 77 75 73 71 71 70
53 51 50 50 50 49 49 49 50 51 52 52 52 54 55 57 58 60 62 65 68 72 75 78 81 83 84 86 86 87 88 87 86 85 84 85 86 86 86 85 82 81 81 82 82 82 82 83 84 85 86 87 87 87 85 82 80 79 76 73 72 72 71
56 54 51 50 50 50 51 51 52 52 53 54 54 54 54 55 56 56 57 59 61 64 67 70 73 77 81 84 86 88 88 88 87 87 87 88 89 89 89 87 83 82 82 83 83 83 84 85 85 86 88 88 89 89 87 83 81 79 75 72 72 71 70
59 57 54 53 52 51 52 53 53 54 55 55 55 55 55 54 53 54 54 55 57 59 61 63 66 70 74 78 81 84 86 86 87 88 89 90 90 89 88 86 84 83 83 83 84 84 84 85 86 87 88 87 88 88 85 82 79 75 71 70 70 69 68
61 60 58 56 54 53 53 54 54 55 56 56 56 55 54 53 52 52 52 52 53 54 57 60 62 65 68 71 74 76 78 81 83 84 85 86 86 86 85 84 83 82 83 83 81 81 83 84 83 82 82 82 84 85 83 78 74 69 67 66 67 66 64
64 62 59 58 56 54 54 55 55 55 55 55 55 55 54 52 51 51 51 51 51 52 54 57 59 62 64 66 67 69 72 74 76 77 77 76 75 75 75 75 76 78 79 78 77 77 78 78 78 80 81 81 84 84 77 69 64 62 62 63 64 63 59
66 63 61 59 57 56 56 56 55 55 54 54 54 54 54 53 52 51 51 50 50 50 52 53 55 58 61 61 62 65 68 69 69 67 65 64 63 65 66 67 69 70 69 69 69 69 70 73 79 86 87 83 78 71 63 57 55 58 59 60 60 57 54
66 64 62 60 58 57 56 56 56 55 54 53 53 53 54 53 53 52 51 50 50 49 49 50 52 54 56 58 61 62 62 61 59 58 56 54 54 55 57 59 60 59 55 53 55 56 58 67 78 84 84 78 66 55 50 51 55 57 57 57 55 53 51
65 64 62 60 58 57 56 57 57 56 55 55 54 54 54 54 54 54 53 52 51 49 48 49 49 50 52 55 57 57 56 54 52 50 49 45 43 43 43 46 50 51 47 45 47 47 47 56 67 75 76 70 58 50 50 55 57 56 55 54 53 52 51
64 62 59 57 55 56 56 57 58 57 57 57 56 55 56 56 56 56 56 54 53 51 50 50 48 48 49 50 50 51 51 48 46 39 28 24 32 37 40 43 47 50 50 47 46 45 42 49 59 68 74 71 61 55 57 60 59 55 53 52 53 53 53
62 61 59 57 56 57 57 58 59 59 58 57 57 57 57 58 58 58 57 55 54 53 53 52 50 49 48 44 42 44 45 47 47 40 22 30 49 48 48 55 58 60 62 57 50 48 45 52 60 66 70 70 65 63 63 61 57 53 52 53 55 55 53

ECMWFFLT1_250_spd_048.txt.gz
Wind_Speed
25 27 27 26 25 24 23 22 21 20 20 21 22 22 23 23 23 24 23 22 21 20 20 20 20 20 19 18 17 16 15 14 12 12 12 12 12 13 14 15 15 15 16 16 16 17 17 18 18 19 19 20 21 22 23 24 25 26 27 29 30 31 33
28 29 29 28 28 27 26 25 24 23 22 22 22 23 24 25 24 24 24 23 23 22 22 22 21 21 20 20 19 18 17 16 15 14 14 14 14 14 15 16 16 17 17 18 19 19 20 20 21 21 21 22 23 24 24 25 26 27 29 30 31 32 34
32 31 30 29 29 29 28 27 26 26 24 23 24 25 26 26 25 24 23 23 23 24 24 23 22 21 22 22 22 21 19 18 17 16 16 17 16 15 16 17 17 18 19 20 21 22 22 23 23 23 24 24 25 25 26 26 27 29 30 31 31 33 35
34 33 32 31 31 30 29 29 29 28 26 25 26 27 28 27 25 24 24 24 24 24 24 23 23 23 23 24 24 23 21 20 20 19 19 18 18 18 18 18 19 20 20 21 23 24 25 26 26 26 26 26 27 27 28 28 29 30 31 31 32 34 36
36 34 33 33 33 32 31 31 31 30 28 27 27 28 28 27 26 26 26 26 26 25 25 24 25 25 25 25 25 24 23 23 22 22 21 20 20 20 21 20 21 22 23 24 25 27 28 28 28 27 27 28 28 29 29 30 30 31 31 32 33 35 37
37 35 34 35 35 34 34 33 33 32 30 29 29 28 27 27 28 29 28 28 27 27 26 26 27 27 27 27 27 27 26 26 25 24 23 23 23 23 23 22 23 24 25 26 27 29 30 30 30 29 29 30 30 30 31 31 32 32 32 33 34 36 39
39 38 37 37 36 35 35 35 35 34 33 31 30 29 29 30 31 31 30 29 28 28 28 29 29 28 28 29 29 29 29 28 28 27 26 26 26 26 26 25 24 26 27 28 28 30 31 31 31 31 31 31 32 32 33 33 34 34 33 34 35 38 40
41 41 40 39 38 37 36 36 36 36 35 34 32 31 32 33 33 32 32 31 29 30 31 31 31 30 30 31 32 32 31 30 30 30 30 29 29 29 28 27 26 27 29 29 29 30 31 32 32 33 33 34 34 34 35 36 36 36 35 35 36 40 42
43 42 43 42 41 40 38 38 37 36 36 35 35 35 35 35 35 34 34 33 32 33 33 33 32 32 32 33 33 33 32 32 32 32 32 32 32 31 30 29 29 29 31 31 30 31 32 33 34 35 35 36 36 37 37 38 38 38 36 36 38 41 44
46 45 45 44 43 43 42 41 39 37 37 36 37 37 37 37 37 37 36 34 34 35 35 34 34 34 34 35 35 35 35 35 34 33 33 33 33 32 31 31 31 32 33 32 32 32 33 34 36 36 36 37 38 39 39 40 40 39 37 38 39 42 45
51 49 47 46 45 45 45 43 42 41 40 39 39 39 38 38 38 38 37 36 37 37 36 35 36 36 36 37 37 37 37 36 35 35 34 34 34 33 33 33 34 35 35 34 33 34 35 36 37 38 38 39 40 40 40 41 41 40 39 40 42 44 46
55 53 50 49 48 48 47 46 45 44 43 42 42 42 41 40 40 39 38 37 38 38 37 37 37 37 37 38 38 38 38 37 37 36 35 35 35 35 35 35 36 37 37 36 35 36 37 38 38 39 39 40 41 41 41 42 42 41 42 43 45 47 47
56 55 54 53 52 51 50 48 47 47 46 46 45 45 44 43 42 42 40 40 40 39 38 38 39 39 39 40 40 40 40 39 39 38 38 38 37 38 38 38 39 39 39 39 38 38 39 39 40 40 41 42 42 42 43 44 44 44 45 45 47 48 48
58 57 56 56 55 55 53 51 50 50 49 49 48 47 46 46 45 44 43 43 42 41 41 42 42 42 42 42 42 42 42 41 41 41 41 41 41 41 41 41 41 42 42 41 41 40 40 41 42 42 43 44 44 44 45 46 46 46 47 47 48 49 51
60 60 59 58 58 58 57 55 54 53 53 52 51 50 49 48 47 47 46 46 45 45 45 45 45 45 45 45 46 45 44 43 43 44 44 44 44 44 44 44 44 44 43 43 43 42 42 43 44 45 46 46 46 45 46 47 47 48 49 50 50 51 52
57 61 62 61 61 61 60 59 58 57 57 56 54 53 52 51 50 50 50 49 49 48 49 47 47 47 47 48 48 47 46 46 47 47 47 47 47 47 47 46 46 46 45 44 45 45 45 46 47 48 49 49 48 47 48 49 49 50 51 52 52 52 53
45 54 60 63 64 63 62 62 61 61 61 60 57 56 56 55 54 53 52 52 52 52 52 50 50 50 50 51 51 50 49 49 49 49 49 49 49 49 49 49 48 48 47 46 47 47 47 48 50 51 52 51 50 50 51 51 51 52 54 54 54 54 55
35 41 50 57 61 63 64 65 64 64 65 64 61 60 60 59 58 57 56 56 56 56 55 54 53 53 53 53 52 51 52 52 52 51 51 51 51 51 51 51 51 51 50 50 50 49 49 51 52 54 54 54 53 53 54 54 53 55 56 56 57 57 56
30 33 39 46 52 56 61 64 66 67 68 67 65 64 64 63 61 60 60 60 59 59 58 57 56 56 55 55 54 54 55 55 54 54 54 54 53 53 52 53 53 54 54 54 53 52 52 53 55 56 57 57 56 56 56 56 56 57 58 59 60 60 58
31 32 35 39 43 48 52 57 62 66 68 70 69 68 67 66 65 65 65 65 63 62 61 60 59 59 58 57 56 57 58 58 57 58 58 57 56 55 55 55 56 57 57 57 57 56 55 56 57 58 60 60 60 59 59 59 59 60 60 61 63 64 61
33 34 35 37 40 43 45 48 53 58 64 68 70 71 70 69 69 70 70 69 67 66 65 64 63 62 62 61 60 61 61 61 61 62 61 61 59 57 58 58 59 60 60 60 60 60 59 59 59 61 63 63 62 62 62 62 62 62 62 63 65 66 66
35 35 36 36 39 41 42 43 45 49 55 61 65 68 70 71 72 73 73 72 71 69 68 67 66 66 65 64 64 65 65 66 66 66 65 64 62 60 60 61 63 64 64 63 63 63 63 63 63 65 66 66 65 65 65 65 65 65 65 66 67 68 69
37 37 37 37 38 41 43 43 44 46 49 53 57 61 66 70 73 74 74 74 73 72 71 70 69 69 69 68 69 70 70 70 70 69 68 67 66 64 64 65 66 67 67 66 66 66 66 67 67 68 69 68 68 68 69 69 68 67 68 68 69 70 72
40 40 39 38 39 41 43 44 45 46 47 48 51 54 59 62 66 69 71 73 74 75 74 73 72 72 72 73 74 75 75 74 72 71 71 70 70 69 69 70 70 70 70 69 69 69 70 70 71 71 71 72 72 72 72 71 70 70 70 71 71 72 73
41 41 42 42 42 42 44 45 46 47 47 47 48 50 53 55 57 60 63 67 71 74 75 74 74 75 76 77 78 79 78 77 75 74 73 73 73 73 74 74 74 74 73 72 72 72 73 73 73 74 74 75 75 75 74 74 73 73 73 73 73 74 75
43 42 43 44 44 44 44 45 46 47 48 48 48 49 50 51 53 55 57 60 63 66 69 72 74 77 79 81 82 81 80 79 79 78 77 77 77 77 77 78 78 78 77 76 74 73 74 75 75 76 77 78 78 77 77 77 76 76 75 75 76 77 76
46 45 44 45 46 47 46 46 46 47 48 49 48 48 48 49 50 52 54 56 56 58 62 67 71 75 78 80 82 82 81 82 82 81 80 80 80 80 80 81 82 81 80 78 77 75 75 76 77 78 79 80 80 80 79 79 78 78 78 78 79 80 78
50 49 47 47 48 48 48 48 48 48 49 50 50 49 49 49 49 50 51 52 52 54 58 62 65 68 71 74 76 78 80 82 83 82 82 82 82 82 83 83 83 82 81 80 80 79 78 79 79 79 80 81 81 81 81 82 81 80 80 80 81 81 79
53 53 51 50 50 50 50 50 50 49 50 51 51 51 51 51 51 52 51 51 52 53 55 57 59 60 63 66 69 71 74 77 79 81 81 81 82 83 84 84 83 82 81 81 81 81 80 79 79 79 80 81 81 81 83 83 82 81 81 81 81 81 79
55 55 55 54 53 52 51 51 51 51 51 51 52 52 52 52 53 53 53 53 54 54 54 55 56 57 58 60 63 65 68 71 73 75 76 77 78 79 80 81 81 80 79 78 78 78 78 77 76 75 76 78 79 80 81 82 81 80 78 78 79 78 75
57 58 58 58 57 55 54 53 53 53 53 53 53 53 53 53 53 53 54 55 55 56 56 56 56 56 56 57 59 61 63 65 66 68 69 70 71 72 73 75 76 75 74 73 72 73 73 72 71 70 71 73 73 73 74 75 75 74 73 73 74 73 71
60 61 61 61 60 59 57 56 55 56 55 55 55 55 54 54 54 54 55 56 56 57 57 57 57 57 57 57 57 58 59 59 60 62 63 64 66 66 67 69 70 70 69 67 67 68 67 67 65 62 60 59 60 62 64 65 66 67 68 68 67 66 63
63 63 64 63 63 62 61 60 58 58 58 58 58 57 56 56 56 56 56 56 57 57 58 58 58 58 58 58 58 58 58 57 57 58 59 61 62 62 63 65 65 65 64 64 64 64 63 62 60 58 56 54 53 53 54 54 56 59 62 63 62 60 57
66 66 66 66 66 66 65 63 62 61 61 61 60 60 59 58 58 58 58 58 58 59 59 59 59 59 59 59 59 59 58 57 57 58 58 59 59 59 60 61 60 61 63 64 64 63 61 58 54 53 53 52 50 49 49 50 51 52 56 61 62 58 52
69 69 69 69 69 69 68 67 66 65 64 63 63 62 61 60 60 59 59 59 60 60 60 60 60 59 59 59 59 60 59 58 58 58 58 57 57 57 57 57 58 61 63 63 60 59 56 49 44 44 46 46 45 45 45 46 47 49 53 59 63 59 50
72 72 72 72 72 72 71 70 69 68 67 66 65 64 63 62 61 61 61 61 61 61 61 60 59 59 58 58 59 60 60 59 58 58 57 56 55 55 55 56 59 61 61 59 56 52 47 43 41 44 43 40 39 43 43 42 46 51 51 54 63 67 58
76 75 75 75 74 74 73 73 72 70 69 68 67 67 66 64 63 63 63 63 62 62 62 61 60 59 59 59 59 60 60 59 57 56 55 55 55 55 55 56 58 59 55 52 49 46 43 43 48 51 47 40 40 46 47 46 50 53 50 48 57 63 59
80 79 78 77 76 75 74 74 74 72 71 71 70 69 68 67 66 65 64 63 63 62 62 62 61 60 60 60 60 59 58 58 57 54 53 54 55 56 57 57 56 54 48 44 45 44 43 47 52 49 44 43 46 50 53 53 53 52 49 47 48 51 53